Time,TemperatureF,DewpointF,PressureIn,WindDirection,WindDirectionDegrees,WindSpeedMPH,WindSpeedGustMPH,Humidity,HourlyPrecipIn,Conditions,Clouds,dailyrainin,SoftwareType,DateUTC
2013-02-11 00:00:00,37.9,24.9,29.87,West,270,15.0,23.0,59,0.00,,---,0.00,VWS V14.01,2013-02-11 06:00:00,
2013-02-11 00:30:00,36.9,24.7,29.89,West,270,16.0,24.0,61,0.00,,---,0.00,VWS V14.01,2013-02-11 06:30:00,
2013-02-11 01:00:00,35.9,24.5,29.91,West,270,16.0,29.0,63,0.00,,---,0.00,VWS V14.01,2013-02-11 07:00:00,
2013-02-11 01:30:00,35.2,24.3,29.92,West,270,14.0,21.0,64,0.00,,---,0.00,VWS V14.01,2013-02-11 07:30:00,
2013-02-11 02:00:00,33.7,24.3,29.94,WSW,248,12.0,20.0,68,0.00,,---,0.00,VWS V14.01,2013-02-11 08:00:00,
2013-02-11 02:30:00,33.4,24.0,29.94,WSW,248,11.0,19.0,68,0.00,,---,0.00,VWS V14.01,2013-02-11 08:30:00,
2013-02-11 03:00:00,32.8,24.1,29.96,West,270,12.0,19.0,70,0.00,,---,0.00,VWS V14.01,2013-02-11 09:00:00,
2013-02-11 03:30:00,31.5,23.9,29.96,West,270,9.0,15.0,73,0.00,,---,0.00,VWS V14.01,2013-02-11 09:30:00,
2013-02-11 04:00:00,32.1,23.4,29.98,West,270,12.0,19.0,70,0.00,,---,0.00,VWS V14.01,2013-02-11 10:00:00,
2013-02-11 04:30:00,30.6,23.0,29.99,WSW,248,10.0,16.0,73,0.00,,---,0.00,VWS V14.01,2013-02-11 10:30:00,
2013-02-11 05:00:00,30.4,22.5,30.00,WSW,248,9.0,15.0,72,0.00,,---,0.00,VWS V14.01,2013-02-11 11:00:00,
2013-02-11 05:30:00,30.3,22.0,30.01,WSW,248,8.0,15.0,71,0.00,,---,0.00,VWS V14.01,2013-02-11 11:30:00,
2013-02-11 06:00:00,29.1,21.9,30.03,West,270,6.0,12.0,74,0.00,,---,0.00,VWS V14.01,2013-02-11 12:00:00,
2013-02-11 06:30:00,28.5,21.3,30.05,WSW,248,5.0,10.0,74,0.00,,---,0.00,VWS V14.01,2013-02-11 12:30:00,
2013-02-11 06:54:00,27.8,21.2,30.06,West,264,5.0,5.0,76,0.00,,---,0.00,VWS V14.01,2013-02-11 12:54:00,
2013-02-11 06:55:00,27.8,21.2,30.06,WSW,258,6.0,8.0,76,0.00,,---,0.00,VWS V14.01,2013-02-11 12:55:00,
2013-02-11 06:59:00,27.8,21.2,30.06,WSW,252,6.0,9.0,76,0.00,,---,0.00,VWS V14.01,2013-02-11 12:59:00,
2013-02-11 07:00:00,27.8,21.2,30.06,WSW,253,6.0,9.0,76,0.00,,---,0.00,VWS V14.01,2013-02-11 13:00:00,
2013-02-11 07:04:00,27.5,20.9,30.07,WSW,250,5.0,9.0,76,0.00,,---,0.00,VWS V14.01,2013-02-11 13:04:00,
2013-02-11 07:05:00,27.5,20.9,30.07,WSW,250,6.0,9.0,76,0.00,,---,0.00,VWS V14.01,2013-02-11 13:05:00,
2013-02-11 07:10:00,27.3,20.8,30.07,WSW,245,5.0,9.0,76,0.00,,---,0.00,VWS V14.01,2013-02-11 13:10:00,
2013-02-11 07:15:00,27.6,21.0,30.07,WSW,254,6.0,11.0,76,0.00,,---,0.00,VWS V14.01,2013-02-11 13:15:00,
2013-02-11 07:16:00,27.6,21.0,30.07,WSW,250,8.0,11.0,76,0.00,,---,0.00,VWS V14.01,2013-02-11 13:16:00,
2013-02-11 07:20:00,27.8,21.2,30.07,WSW,251,5.0,11.0,76,0.00,,---,0.00,VWS V14.01,2013-02-11 13:20:00,
2013-02-11 07:21:00,27.8,20.9,30.07,West,267,10.0,11.0,75,0.00,,---,0.00,VWS V14.01,2013-02-11 13:21:00,
2013-02-11 07:25:00,27.9,21.9,30.07,WSW,251,7.0,13.0,78,0.00,,---,0.00,VWS V14.01,2013-02-11 13:25:00,
2013-02-11 07:26:00,27.9,21.0,30.07,West,275,11.0,13.0,75,0.00,,---,0.00,VWS V14.01,2013-02-11 13:26:00,
2013-02-11 07:30:00,27.9,20.7,30.07,WSW,257,5.0,13.0,74,0.00,,---,0.00,VWS V14.01,2013-02-11 13:30:00,
2013-02-11 07:31:00,27.9,20.7,30.07,WSW,257,6.0,13.0,74,0.00,,---,0.00,VWS V14.01,2013-02-11 13:31:00,
2013-02-11 07:33:00,27.9,21.0,30.08,WSW,255,7.0,13.0,75,0.00,,---,0.00,VWS V14.01,2013-02-11 13:33:00,
2013-02-11 07:35:00,27.9,20.7,30.08,WSW,255,6.0,13.0,74,0.00,,---,0.00,VWS V14.01,2013-02-11 13:35:00,
2013-02-11 07:36:00,27.9,20.7,30.08,West,264,6.0,13.0,74,0.00,,---,0.00,VWS V14.01,2013-02-11 13:36:00,
2013-02-11 07:38:00,27.9,20.7,30.08,West,266,6.0,13.0,74,0.00,,---,0.00,VWS V14.01,2013-02-11 13:38:00,
2013-02-11 07:41:00,27.9,21.0,30.08,WSW,257,7.0,13.0,75,0.00,,---,0.00,VWS V14.01,2013-02-11 13:41:00,
2013-02-11 07:44:00,28.1,21.2,30.08,WSW,257,6.0,13.0,75,0.00,,---,0.00,VWS V14.01,2013-02-11 13:44:00,
2013-02-11 07:46:00,28.1,20.9,30.08,West,269,7.0,13.0,74,0.00,,---,0.00,VWS V14.01,2013-02-11 13:46:00,
2013-02-11 07:47:00,28.2,21.0,30.08,WSW,257,6.0,13.0,74,0.00,,---,0.00,VWS V14.01,2013-02-11 13:47:00,
2013-02-11 07:49:00,28.4,21.2,30.08,West,259,5.0,11.0,74,0.00,,---,0.00,VWS V14.01,2013-02-11 13:49:00,
2013-02-11 07:51:00,28.4,21.2,30.08,WSW,254,8.0,11.0,74,0.00,,---,0.00,VWS V14.01,2013-02-11 13:51:00,
2013-02-11 07:52:00,28.4,21.2,30.08,WSW,258,6.0,11.0,74,0.00,,---,0.00,VWS V14.01,2013-02-11 13:52:00,
2013-02-11 07:54:00,28.4,21.2,30.08,WSW,251,7.0,11.0,74,0.00,,---,0.00,VWS V14.01,2013-02-11 13:54:00,
2013-02-11 07:56:00,28.4,21.2,30.08,WSW,252,4.0,11.0,74,0.00,,---,0.00,VWS V14.01,2013-02-11 13:56:00,
2013-02-11 07:57:00,28.4,21.2,30.08,WSW,254,6.0,11.0,74,0.00,,---,0.00,VWS V14.01,2013-02-11 13:57:00,
2013-02-11 07:59:00,28.4,21.2,30.08,West,259,9.0,11.0,74,0.00,,---,0.00,VWS V14.01,2013-02-11 13:59:00,
2013-02-11 08:00:00,28.2,21.0,30.08,West,259,9.0,13.0,74,0.00,,---,0.00,VWS V14.01,2013-02-11 14:00:00,
2013-02-11 08:02:00,28.5,21.3,30.09,West,261,8.0,11.0,74,0.00,,---,0.00,VWS V14.01,2013-02-11 14:02:00,
2013-02-11 08:05:00,28.7,21.1,30.09,West,266,7.0,12.0,73,0.00,,---,0.00,VWS V14.01,2013-02-11 14:05:00,
2013-02-11 08:07:00,28.8,21.6,30.09,West,265,8.0,12.0,74,0.00,,---,0.00,VWS V14.01,2013-02-11 14:07:00,
2013-02-11 08:08:00,28.8,21.6,30.09,West,274,11.0,14.0,74,0.00,,---,0.00,VWS V14.01,2013-02-11 14:08:00,
2013-02-11 08:10:00,29.1,21.2,30.09,West,266,11.0,14.0,72,0.00,,---,0.00,VWS V14.01,2013-02-11 14:10:00,
2013-02-11 08:12:00,29.3,21.4,30.09,West,267,10.0,14.0,72,0.00,,---,0.00,VWS V14.01,2013-02-11 14:12:00,
2013-02-11 08:13:00,29.3,21.4,30.09,WSW,257,10.0,14.0,72,0.00,,---,0.00,VWS V14.01,2013-02-11 14:13:00,
2013-02-11 08:15:00,29.5,21.3,30.09,West,264,10.0,14.0,71,0.00,,---,0.00,VWS V14.01,2013-02-11 14:15:00,
2013-02-11 08:17:00,29.7,21.5,30.10,West,270,10.0,12.0,71,0.00,,---,0.00,VWS V14.01,2013-02-11 14:17:00,
2013-02-11 08:18:00,29.7,21.5,30.10,WSW,257,9.0,14.0,71,0.00,,---,0.00,VWS V14.01,2013-02-11 14:18:00,
2013-02-11 08:20:00,29.8,21.2,30.10,West,261,8.0,14.0,70,0.00,,---,0.00,VWS V14.01,2013-02-11 14:20:00,
2013-02-11 08:22:00,30.0,21.8,30.10,West,260,9.0,14.0,71,0.00,,---,0.00,VWS V14.01,2013-02-11 14:22:00,
2013-02-11 08:23:00,30.0,21.8,30.10,WSW,255,13.0,14.0,71,0.00,,---,0.00,VWS V14.01,2013-02-11 14:23:00,
2013-02-11 08:24:00,30.0,21.8,30.10,West,263,6.0,14.0,71,0.00,,---,0.00,VWS V14.01,2013-02-11 14:24:00,
2013-02-11 08:26:00,30.1,21.5,30.10,WSW,256,8.0,14.0,70,0.00,,---,0.00,VWS V14.01,2013-02-11 14:26:00,
2013-02-11 08:28:00,30.1,21.5,30.10,WSW,256,7.0,14.0,70,0.00,,---,0.00,VWS V14.01,2013-02-11 14:28:00,
2013-02-11 08:29:00,30.3,21.7,30.10,West,278,8.0,14.0,70,0.00,,---,0.00,VWS V14.01,2013-02-11 14:29:00,
2013-02-11 08:30:00,29.5,21.3,30.10,West,259,12.0,14.0,71,0.00,,---,0.00,VWS V14.01,2013-02-11 14:30:00,
2013-02-11 08:31:00,30.3,21.4,30.10,WSW,238,7.0,14.0,69,0.00,,---,0.00,VWS V14.01,2013-02-11 14:31:00,
2013-02-11 08:33:00,30.4,21.8,30.10,West,266,11.0,14.0,70,0.00,,---,0.00,VWS V14.01,2013-02-11 14:33:00,
2013-02-11 08:34:00,30.4,21.5,30.10,West,263,11.0,14.0,69,0.00,,---,0.00,VWS V14.01,2013-02-11 14:34:00,
2013-02-11 08:36:00,30.4,21.5,30.10,West,271,11.0,14.0,69,0.00,,---,0.00,VWS V14.01,2013-02-11 14:36:00,
2013-02-11 08:38:00,30.4,21.1,30.10,West,274,11.0,14.0,68,0.00,,---,0.00,VWS V14.01,2013-02-11 14:38:00,
2013-02-11 08:39:00,30.6,21.3,30.10,West,265,13.0,14.0,68,0.00,,---,0.00,VWS V14.01,2013-02-11 14:39:00,
2013-02-11 08:42:00,30.7,21.8,30.10,WSW,250,10.0,14.0,69,0.00,,---,0.00,VWS V14.01,2013-02-11 14:42:00,
2013-02-11 08:43:00,30.7,21.4,30.10,WNW,297,9.0,14.0,68,0.00,,---,0.00,VWS V14.01,2013-02-11 14:43:00,
2013-02-11 08:44:00,30.9,21.6,30.10,West,264,10.0,14.0,68,0.00,,---,0.00,VWS V14.01,2013-02-11 14:44:00,
2013-02-11 08:45:00,30.9,21.6,30.10,West,266,10.0,14.0,68,0.00,,---,0.00,VWS V14.01,2013-02-11 14:45:00,
2013-02-11 08:47:00,30.9,21.2,30.10,WSW,253,6.0,14.0,67,0.00,,---,0.00,VWS V14.01,2013-02-11 14:47:00,
2013-02-11 08:49:00,31.0,21.3,30.10,West,266,10.0,14.0,67,0.00,,---,0.00,VWS V14.01,2013-02-11 14:49:00,
2013-02-11 08:50:00,31.0,21.0,30.10,West,270,11.0,14.0,66,0.00,,---,0.00,VWS V14.01,2013-02-11 14:50:00,
2013-02-11 08:52:00,31.0,21.0,30.10,West,274,10.0,14.0,66,0.00,,---,0.00,VWS V14.01,2013-02-11 14:52:00,
2013-02-11 08:54:00,31.0,21.0,30.10,West,268,7.0,14.0,66,0.00,,---,0.00,VWS V14.01,2013-02-11 14:54:00,
2013-02-11 08:55:00,31.2,21.5,30.10,WNW,285,9.0,14.0,67,0.00,,---,0.00,VWS V14.01,2013-02-11 14:55:00,
2013-02-11 08:58:00,31.5,21.8,30.10,West,269,10.0,14.0,67,0.00,,---,0.00,VWS V14.01,2013-02-11 14:58:00,
2013-02-11 08:59:00,31.5,21.8,30.10,West,265,11.0,14.0,67,0.00,,---,0.00,VWS V14.01,2013-02-11 14:59:00,
2013-02-11 09:00:00,31.6,21.9,30.10,WSW,258,10.0,12.0,67,0.00,,---,0.00,VWS V14.01,2013-02-11 15:00:00,
2013-02-11 09:01:00,31.6,21.9,30.10,West,266,12.0,12.0,67,0.00,,---,0.00,VWS V14.01,2013-02-11 15:01:00,
2013-02-11 09:04:00,31.8,21.8,30.11,West,267,10.0,12.0,66,0.00,,---,0.00,VWS V14.01,2013-02-11 15:04:00,
2013-02-11 09:06:00,32.2,22.5,30.11,WSW,248,11.0,12.0,67,0.00,,---,0.00,VWS V14.01,2013-02-11 15:06:00,
2013-02-11 09:09:00,32.4,22.0,30.11,West,262,12.0,14.0,65,0.00,,---,0.00,VWS V14.01,2013-02-11 15:09:00,
2013-02-11 09:11:00,32.4,22.0,30.11,WSW,257,12.0,14.0,65,0.00,,---,0.00,VWS V14.01,2013-02-11 15:11:00,
2013-02-11 09:12:00,32.4,22.0,30.11,West,275,11.0,14.0,65,0.00,,---,0.00,VWS V14.01,2013-02-11 15:12:00,
2013-02-11 09:14:00,32.5,22.1,30.11,WNW,283,14.0,18.0,65,0.00,,---,0.00,VWS V14.01,2013-02-11 15:14:00,
2013-02-11 09:15:00,32.5,21.3,30.11,WNW,291,10.0,18.0,63,0.00,,---,0.00,VWS V14.01,2013-02-11 15:15:00,
2013-02-11 09:17:00,32.7,21.9,30.11,WNW,291,10.0,18.0,64,0.00,,---,0.00,VWS V14.01,2013-02-11 15:17:00,
2013-02-11 09:20:00,32.8,22.0,30.11,NW,307,14.0,14.0,64,0.00,,---,0.00,VWS V14.01,2013-02-11 15:20:00,
2013-02-11 09:22:00,32.9,20.9,30.11,WNW,287,14.0,14.0,61,0.00,,---,0.00,VWS V14.01,2013-02-11 15:22:00,
2013-02-11 09:23:00,32.9,21.7,30.11,West,274,13.0,15.0,63,0.00,,---,0.00,VWS V14.01,2013-02-11 15:23:00,
2013-02-11 09:25:00,32.9,22.1,30.11,West,278,12.0,16.0,64,0.00,,---,0.00,VWS V14.01,2013-02-11 15:25:00,
2013-02-11 09:27:00,33.1,21.9,30.11,West,276,12.0,16.0,63,0.00,,---,0.00,VWS V14.01,2013-02-11 15:27:00,
2013-02-11 09:28:00,33.1,22.3,30.11,West,261,12.0,16.0,64,0.00,,---,0.00,VWS V14.01,2013-02-11 15:28:00,
2013-02-11 09:30:00,33.2,22.0,30.11,West,268,10.0,16.0,63,0.00,,---,0.00,VWS V14.01,2013-02-11 15:30:00,
2013-02-11 09:33:00,33.2,21.6,30.11,WSW,254,14.0,20.0,62,0.00,,---,0.00,VWS V14.01,2013-02-11 15:33:00,
2013-02-11 09:34:00,33.2,21.6,30.11,WNW,282,13.0,20.0,62,0.00,,---,0.00,VWS V14.01,2013-02-11 15:34:00,
2013-02-11 09:35:00,33.2,22.0,30.11,West,271,17.0,20.0,63,0.00,,---,0.00,VWS V14.01,2013-02-11 15:35:00,
2013-02-11 09:38:00,33.4,21.8,30.11,WNW,288,10.0,20.0,62,0.00,,---,0.00,VWS V14.01,2013-02-11 15:38:00,
2013-02-11 09:39:00,33.5,21.9,30.11,West,275,10.0,20.0,62,0.00,,---,0.00,VWS V14.01,2013-02-11 15:39:00,
2013-02-11 09:40:00,33.7,22.5,30.11,West,260,12.0,20.0,63,0.00,,---,0.00,VWS V14.01,2013-02-11 15:40:00,
2013-02-11 09:41:00,33.8,22.5,30.11,West,259,14.0,20.0,63,0.00,,---,0.00,VWS V14.01,2013-02-11 15:41:00,
2013-02-11 09:44:00,33.8,21.8,30.11,West,269,15.0,20.0,61,0.00,,---,0.00,VWS V14.01,2013-02-11 15:44:00,
2013-02-11 09:45:00,33.8,21.8,30.11,West,269,16.0,20.0,61,0.00,,---,0.00,VWS V14.01,2013-02-11 15:45:00,
2013-02-11 09:46:00,33.8,21.8,30.11,West,271,14.0,20.0,61,0.00,,---,0.00,VWS V14.01,2013-02-11 15:46:00,
2013-02-11 09:49:00,33.8,22.2,30.11,West,259,15.0,18.0,62,0.00,,---,0.00,VWS V14.01,2013-02-11 15:49:00,
2013-02-11 09:50:00,33.8,21.8,30.11,West,274,13.0,20.0,61,0.00,,---,0.00,VWS V14.01,2013-02-11 15:50:00,
2013-02-11 09:51:00,34.0,22.0,30.11,West,271,12.0,20.0,61,0.00,,---,0.00,VWS V14.01,2013-02-11 15:51:00,
2013-02-11 09:54:00,34.0,21.6,30.11,West,264,16.0,20.0,60,0.00,,---,0.00,VWS V14.01,2013-02-11 15:54:00,
2013-02-11 09:56:00,33.8,21.4,30.11,WNW,290,13.0,20.0,60,0.00,,---,0.00,VWS V14.01,2013-02-11 15:56:00,
2013-02-11 09:59:00,34.1,22.1,30.11,West,281,12.0,20.0,61,0.00,,---,0.00,VWS V14.01,2013-02-11 15:59:00,
2013-02-11 10:00:00,33.8,21.8,30.11,West,261,15.0,20.0,61,0.00,,---,0.00,VWS V14.01,2013-02-11 16:00:00,
2013-02-11 10:01:00,34.6,22.2,30.11,West,269,14.0,20.0,60,0.00,,---,0.00,VWS V14.01,2013-02-11 16:01:00,
2013-02-11 10:02:00,34.4,23.1,30.12,WNW,288,11.0,20.0,63,0.00,,---,0.00,VWS V14.01,2013-02-11 16:02:00,
2013-02-11 10:06:00,34.7,22.2,30.12,West,267,14.0,20.0,60,0.00,,---,0.00,VWS V14.01,2013-02-11 16:06:00,
2013-02-11 10:07:00,34.7,22.2,30.12,West,269,16.0,20.0,60,0.00,,---,0.00,VWS V14.01,2013-02-11 16:07:00,
2013-02-11 10:11:00,34.7,21.5,30.12,WSW,246,10.0,20.0,58,0.00,,---,0.00,VWS V14.01,2013-02-11 16:11:00,
2013-02-11 10:12:00,34.7,21.5,30.12,West,266,11.0,20.0,58,0.00,,---,0.00,VWS V14.01,2013-02-11 16:12:00,
2013-02-11 10:16:00,35.2,22.3,30.12,WNW,290,12.0,20.0,59,0.00,,---,0.00,VWS V14.01,2013-02-11 16:16:00,
2013-02-11 10:17:00,35.2,22.3,30.12,West,271,12.0,20.0,59,0.00,,---,0.00,VWS V14.01,2013-02-11 16:17:00,
2013-02-11 10:21:00,35.0,21.3,30.12,West,278,13.0,17.0,57,0.00,,---,0.00,VWS V14.01,2013-02-11 16:21:00,
2013-02-11 10:22:00,35.0,21.3,30.12,WNW,287,11.0,17.0,57,0.00,,---,0.00,VWS V14.01,2013-02-11 16:22:00,
2013-02-11 10:23:00,35.0,21.7,30.12,WNW,295,14.0,17.0,58,0.00,,---,0.00,VWS V14.01,2013-02-11 16:23:00,
2013-02-11 10:26:00,35.6,22.3,30.12,West,259,13.0,17.0,58,0.00,,---,0.00,VWS V14.01,2013-02-11 16:26:00,
2013-02-11 10:27:00,35.5,21.8,30.12,WSW,257,11.0,17.0,57,0.00,,---,0.00,VWS V14.01,2013-02-11 16:27:00,
2013-02-11 10:28:00,35.5,21.8,30.12,WSW,254,11.0,17.0,57,0.00,,---,0.00,VWS V14.01,2013-02-11 16:28:00,
2013-02-11 10:30:00,35.2,22.3,30.12,WNW,293,15.0,20.0,59,0.00,,---,0.00,VWS V14.01,2013-02-11 16:30:00,
2013-02-11 10:31:00,35.5,21.8,30.12,WNW,288,10.0,17.0,57,0.00,,---,0.00,VWS V14.01,2013-02-11 16:31:00,
2013-02-11 10:33:00,35.6,22.3,30.12,WSW,248,9.0,17.0,58,0.00,,---,0.00,VWS V14.01,2013-02-11 16:33:00,
2013-02-11 10:36:00,36.0,22.3,30.12,West,262,13.0,17.0,57,0.00,,---,0.00,VWS V14.01,2013-02-11 16:36:00,
2013-02-11 10:38:00,35.8,21.2,30.12,West,265,11.0,17.0,55,0.00,,---,0.00,VWS V14.01,2013-02-11 16:38:00,
2013-02-11 10:39:00,35.8,21.6,30.12,West,268,13.0,17.0,56,0.00,,---,0.00,VWS V14.01,2013-02-11 16:39:00,
2013-02-11 10:42:00,36.0,21.4,30.12,West,272,11.0,17.0,55,0.00,,---,0.00,VWS V14.01,2013-02-11 16:42:00,
2013-02-11 10:43:00,36.0,21.8,30.12,WNW,284,10.0,17.0,56,0.00,,---,0.00,VWS V14.01,2013-02-11 16:43:00,
2013-02-11 10:44:00,36.2,22.5,30.12,NW,314,13.0,17.0,57,0.00,,---,0.00,VWS V14.01,2013-02-11 16:44:00,
2013-02-11 10:47:00,36.3,21.3,30.12,WNW,290,14.0,17.0,54,0.00,,---,0.00,VWS V14.01,2013-02-11 16:47:00,
2013-02-11 10:48:00,36.3,21.7,30.12,WNW,300,13.0,15.0,55,0.00,,---,0.00,VWS V14.01,2013-02-11 16:48:00,
2013-02-11 10:49:00,36.3,21.7,30.12,WNW,296,15.0,16.0,55,0.00,,---,0.00,VWS V14.01,2013-02-11 16:49:00,
2013-02-11 10:52:00,36.5,21.9,30.12,West,268,14.0,16.0,55,0.00,,---,0.00,VWS V14.01,2013-02-11 16:52:00,
2013-02-11 10:53:00,36.3,20.8,30.12,WNW,285,11.0,17.0,53,0.00,,---,0.00,VWS V14.01,2013-02-11 16:53:00,
2013-02-11 10:54:00,36.3,22.1,30.12,WNW,293,11.0,17.0,56,0.00,,---,0.00,VWS V14.01,2013-02-11 16:54:00,
2013-02-11 10:58:00,36.8,22.6,30.12,WSW,258,11.0,18.0,56,0.00,,---,0.00,VWS V14.01,2013-02-11 16:58:00,
2013-02-11 10:59:00,37.0,22.8,30.12,West,278,11.0,18.0,56,0.00,,---,0.00,VWS V14.01,2013-02-11 16:59:00,
2013-02-11 11:00:00,36.3,21.3,30.12,WNW,290,14.0,17.0,54,0.00,,---,0.00,VWS V14.01,2013-02-11 17:00:00,
2013-02-11 11:03:00,37.3,21.8,30.13,West,275,12.0,18.0,53,0.00,,---,0.00,VWS V14.01,2013-02-11 17:03:00,
2013-02-11 11:04:00,37.2,21.7,30.13,West,259,11.0,18.0,53,0.00,,---,0.00,VWS V14.01,2013-02-11 17:04:00,
2013-02-11 11:08:00,37.3,22.2,30.13,West,265,11.0,18.0,54,0.00,,---,0.00,VWS V14.01,2013-02-11 17:08:00,
2013-02-11 11:09:00,37.3,22.2,30.13,WSW,258,11.0,18.0,54,0.00,,---,0.00,VWS V14.01,2013-02-11 17:09:00,
2013-02-11 11:10:00,37.8,23.1,30.13,WSW,248,11.0,18.0,55,0.00,,---,0.00,VWS V14.01,2013-02-11 17:10:00,
2013-02-11 11:13:00,38.0,22.9,30.13,West,274,13.0,18.0,54,0.00,,---,0.00,VWS V14.01,2013-02-11 17:13:00,
2013-02-11 11:14:00,38.0,22.9,30.13,West,274,13.0,18.0,54,0.00,,---,0.00,VWS V14.01,2013-02-11 17:14:00,
2013-02-11 11:16:00,37.6,21.6,30.13,West,264,10.0,18.0,52,0.00,,---,0.00,VWS V14.01,2013-02-11 17:16:00,
2013-02-11 11:18:00,37.6,22.0,30.13,West,260,15.0,15.0,53,0.00,,---,0.00,VWS V14.01,2013-02-11 17:18:00,
2013-02-11 11:19:00,37.9,23.6,30.13,West,271,13.0,15.0,56,0.00,,---,0.00,VWS V14.01,2013-02-11 17:19:00,
2013-02-11 11:20:00,37.9,23.6,30.13,West,267,13.0,15.0,56,0.00,,---,0.00,VWS V14.01,2013-02-11 17:20:00,
2013-02-11 11:21:00,37.6,21.6,30.13,West,267,8.0,15.0,52,0.00,,---,0.00,VWS V14.01,2013-02-11 17:21:00,
2013-02-11 11:24:00,37.5,21.9,30.13,WSW,244,12.0,15.0,53,0.00,,---,0.00,VWS V14.01,2013-02-11 17:24:00,
2013-02-11 11:25:00,37.9,23.6,30.13,WSW,238,10.0,15.0,56,0.00,,---,0.00,VWS V14.01,2013-02-11 17:25:00,
2013-02-11 11:27:00,38.3,22.7,30.13,SW,233,10.0,15.0,53,0.00,,---,0.00,VWS V14.01,2013-02-11 17:27:00,
2013-02-11 11:29:00,38.2,22.6,30.13,West,261,13.0,17.0,53,0.00,,---,0.00,VWS V14.01,2013-02-11 17:29:00,
2013-02-11 11:30:00,38.0,22.4,30.13,WSW,240,13.0,17.0,53,0.00,,---,0.00,VWS V14.01,2013-02-11 17:30:00,
2013-02-11 11:32:00,38.2,23.0,30.13,West,261,10.0,17.0,54,0.00,,---,0.00,VWS V14.01,2013-02-11 17:32:00,
2013-02-11 11:35:00,38.2,23.0,30.13,WSW,253,12.0,17.0,54,0.00,,---,0.00,VWS V14.01,2013-02-11 17:35:00,
2013-02-11 11:36:00,38.2,22.1,30.13,WSW,250,9.0,17.0,52,0.00,,---,0.00,VWS V14.01,2013-02-11 17:36:00,
2013-02-11 11:37:00,38.5,23.8,30.13,WNW,295,6.0,17.0,55,0.00,,---,0.00,VWS V14.01,2013-02-11 17:37:00,
2013-02-11 11:40:00,38.8,23.6,30.13,West,271,8.0,17.0,54,0.00,,---,0.00,VWS V14.01,2013-02-11 17:40:00,
2013-02-11 11:41:00,38.6,23.0,30.13,West,264,11.0,17.0,53,0.00,,---,0.00,VWS V14.01,2013-02-11 17:41:00,
2013-02-11 11:43:00,38.8,22.7,30.13,West,267,8.0,17.0,52,0.00,,---,0.00,VWS V14.01,2013-02-11 17:43:00,
2013-02-11 11:45:00,38.6,22.0,30.13,WSW,243,13.0,17.0,51,0.00,,---,0.00,VWS V14.01,2013-02-11 17:45:00,
2013-02-11 11:46:00,38.5,22.0,30.13,WSW,238,9.0,17.0,51,0.00,,---,0.00,VWS V14.01,2013-02-11 17:46:00,
2013-02-11 11:48:00,38.6,23.0,30.13,WSW,255,15.0,16.0,53,0.00,,---,0.00,VWS V14.01,2013-02-11 17:48:00,
2013-02-11 11:50:00,38.8,23.6,30.13,WSW,257,11.0,16.0,54,0.00,,---,0.00,VWS V14.01,2013-02-11 17:50:00,
2013-02-11 11:51:00,38.9,23.7,30.13,West,262,12.0,16.0,54,0.00,,---,0.00,VWS V14.01,2013-02-11 17:51:00,
2013-02-11 11:52:00,38.9,23.2,30.13,West,260,14.0,16.0,53,0.00,,---,0.00,VWS V14.01,2013-02-11 17:52:00,
2013-02-11 11:53:00,38.9,22.8,30.13,WSW,258,11.0,16.0,52,0.00,,---,0.00,VWS V14.01,2013-02-11 17:53:00,
2013-02-11 11:56:00,38.8,22.7,30.13,West,259,10.0,16.0,52,0.00,,---,0.00,VWS V14.01,2013-02-11 17:56:00,
2013-02-11 11:57:00,38.8,22.7,30.13,NW,306,11.0,16.0,52,0.00,,---,0.00,VWS V14.01,2013-02-11 17:57:00,
2013-02-11 11:58:00,38.9,22.3,30.13,WNW,291,14.0,16.0,51,0.00,,---,0.00,VWS V14.01,2013-02-11 17:58:00,
2013-02-11 12:00:00,38.5,22.4,30.13,WSW,245,13.0,17.0,52,0.00,,---,0.00,VWS V14.01,2013-02-11 18:00:00,
2013-02-11 12:01:00,39.1,23.0,30.13,West,272,12.0,12.0,52,0.00,,---,0.00,VWS V14.01,2013-02-11 18:01:00,
2013-02-11 12:02:00,39.1,22.5,30.13,West,278,15.0,15.0,51,0.00,,---,0.00,VWS V14.01,2013-02-11 18:02:00,
2013-02-11 12:03:00,39.1,22.5,30.13,West,268,16.0,16.0,51,0.00,,---,0.00,VWS V14.01,2013-02-11 18:03:00,
2013-02-11 12:06:00,39.1,23.0,30.13,WSW,240,7.0,16.0,52,0.00,,---,0.00,VWS V14.01,2013-02-11 18:06:00,
2013-02-11 12:08:00,39.5,22.4,30.13,WSW,246,15.0,16.0,50,0.00,,---,0.00,VWS V14.01,2013-02-11 18:08:00,
2013-02-11 12:09:00,39.5,22.4,30.13,West,264,11.0,16.0,50,0.00,,---,0.00,VWS V14.01,2013-02-11 18:09:00,
2013-02-11 12:11:00,39.9,23.3,30.13,WSW,245,10.0,16.0,51,0.00,,---,0.00,VWS V14.01,2013-02-11 18:11:00,
2013-02-11 12:13:00,39.9,22.8,30.13,WSW,252,12.0,16.0,50,0.00,,---,0.00,VWS V14.01,2013-02-11 18:13:00,
2013-02-11 12:14:00,40.2,23.5,30.13,West,264,12.0,16.0,51,0.00,,---,0.00,VWS V14.01,2013-02-11 18:14:00,
2013-02-11 12:16:00,39.9,23.3,30.13,West,260,9.0,16.0,51,0.00,,---,0.00,VWS V14.01,2013-02-11 18:16:00,
2013-02-11 12:18:00,40.2,23.5,30.13,WSW,257,12.0,12.0,51,0.00,,---,0.00,VWS V14.01,2013-02-11 18:18:00,
2013-02-11 12:19:00,40.2,23.5,30.13,WSW,254,11.0,14.0,51,0.00,,---,0.00,VWS V14.01,2013-02-11 18:19:00,
2013-02-11 12:22:00,40.2,23.1,30.13,West,259,11.0,14.0,50,0.00,,---,0.00,VWS V14.01,2013-02-11 18:22:00,
2013-02-11 12:23:00,40.2,23.5,30.13,SW,236,13.0,16.0,51,0.00,,---,0.00,VWS V14.01,2013-02-11 18:23:00,
2013-02-11 12:24:00,40.2,22.6,30.13,West,276,13.0,16.0,49,0.00,,---,0.00,VWS V14.01,2013-02-11 18:24:00,
2013-02-11 12:28:00,40.3,23.6,30.13,WSW,250,12.0,16.0,51,0.00,,---,0.00,VWS V14.01,2013-02-11 18:28:00,
2013-02-11 12:29:00,40.6,23.4,30.13,West,275,13.0,19.0,50,0.00,,---,0.00,VWS V14.01,2013-02-11 18:29:00,
2013-02-11 12:30:00,40.5,22.9,30.13,WSW,249,11.0,19.0,49,0.00,,---,0.00,VWS V14.01,2013-02-11 18:30:00,
2013-02-11 12:33:00,40.1,23.4,30.13,WNW,288,8.0,19.0,51,0.00,,---,0.00,VWS V14.01,2013-02-11 18:33:00,
2013-02-11 12:34:00,40.3,24.1,30.13,WNW,290,10.0,19.0,52,0.00,,---,0.00,VWS V14.01,2013-02-11 18:34:00,
2013-02-11 12:35:00,40.3,23.6,30.13,West,281,11.0,19.0,51,0.00,,---,0.00,VWS V14.01,2013-02-11 18:35:00,
2013-02-11 12:38:00,40.8,23.6,30.13,WNW,289,15.0,19.0,50,0.00,,---,0.00,VWS V14.01,2013-02-11 18:38:00,
2013-02-11 12:39:00,40.5,22.9,30.13,West,266,10.0,19.0,49,0.00,,---,0.00,VWS V14.01,2013-02-11 18:39:00,
2013-02-11 12:40:00,40.3,22.7,30.13,West,269,13.0,19.0,49,0.00,,---,0.00,VWS V14.01,2013-02-11 18:40:00,
2013-02-11 12:43:00,40.6,23.4,30.13,West,260,11.0,19.0,50,0.00,,---,0.00,VWS V14.01,2013-02-11 18:43:00,
2013-02-11 12:44:00,40.8,22.6,30.13,WNW,288,10.0,19.0,48,0.00,,---,0.00,VWS V14.01,2013-02-11 18:44:00,
2013-02-11 12:45:00,40.6,22.5,30.13,West,259,16.0,19.0,48,0.00,,---,0.00,VWS V14.01,2013-02-11 18:45:00,
2013-02-11 12:46:00,40.6,22.5,30.13,West,276,15.0,19.0,48,0.00,,---,0.00,VWS V14.01,2013-02-11 18:46:00,
2013-02-11 12:48:00,40.5,22.9,30.12,WSW,257,10.0,10.0,49,0.00,,---,0.00,VWS V14.01,2013-02-11 18:48:00,
2013-02-11 12:49:00,40.5,22.9,30.12,SW,234,11.0,13.0,49,0.00,,---,0.00,VWS V14.01,2013-02-11 18:49:00,
2013-02-11 12:50:00,40.6,23.0,30.12,WSW,252,12.0,14.0,49,0.00,,---,0.00,VWS V14.01,2013-02-11 18:50:00,
2013-02-11 12:51:00,40.6,23.0,30.12,WSW,240,10.0,14.0,49,0.00,,---,0.00,VWS V14.01,2013-02-11 18:51:00,
2013-02-11 12:53:00,41.1,23.4,30.12,WSW,257,13.0,18.0,49,0.00,,---,0.00,VWS V14.01,2013-02-11 18:53:00,
2013-02-11 12:54:00,41.2,23.0,30.12,West,278,14.0,18.0,48,0.00,,---,0.00,VWS V14.01,2013-02-11 18:54:00,
2013-02-11 12:56:00,41.1,22.4,30.12,WNW,282,10.0,18.0,47,0.00,,---,0.00,VWS V14.01,2013-02-11 18:56:00,
2013-02-11 12:58:00,40.9,23.7,30.12,WSW,253,22.0,22.0,50,0.00,,---,0.00,VWS V14.01,2013-02-11 18:58:00,
2013-02-11 13:00:00,40.9,23.2,30.12,SW,227,15.0,22.0,49,0.00,,---,0.00,VWS V14.01,2013-02-11 19:00:00,
2013-02-11 13:01:00,41.1,22.9,30.12,West,273,14.0,22.0,48,0.00,,---,0.00,VWS V14.01,2013-02-11 19:01:00,
2013-02-11 13:04:00,41.5,23.3,30.11,West,268,17.0,22.0,48,0.00,,---,0.00,VWS V14.01,2013-02-11 19:04:00,
2013-02-11 13:05:00,41.1,22.4,30.11,West,269,14.0,22.0,47,0.00,,---,0.00,VWS V14.01,2013-02-11 19:05:00,
2013-02-11 13:06:00,41.1,22.4,30.11,West,269,15.0,22.0,47,0.00,,---,0.00,VWS V14.01,2013-02-11 19:06:00,
2013-02-11 13:09:00,41.5,22.3,30.11,WNW,284,16.0,22.0,46,0.00,,---,0.00,VWS V14.01,2013-02-11 19:09:00,
2013-02-11 13:11:00,40.9,21.7,30.11,West,274,12.0,22.0,46,0.00,,---,0.00,VWS V14.01,2013-02-11 19:11:00,
2013-02-11 13:14:00,41.5,23.3,30.11,SW,233,10.0,22.0,48,0.00,,---,0.00,VWS V14.01,2013-02-11 19:14:00,
2013-02-11 13:16:00,41.9,22.6,30.10,SW,227,8.0,22.0,46,0.00,,---,0.00,VWS V14.01,2013-02-11 19:16:00,
2013-02-11 13:19:00,42.1,22.8,30.10,West,266,14.0,14.0,46,0.00,,---,0.00,VWS V14.01,2013-02-11 19:19:00,
2013-02-11 13:21:00,42.3,22.5,30.10,West,276,11.0,16.0,45,0.00,,---,0.00,VWS V14.01,2013-02-11 19:21:00,
2013-02-11 13:22:00,42.3,22.5,30.10,WNW,297,11.0,16.0,45,0.00,,---,0.00,VWS V14.01,2013-02-11 19:22:00,
2013-02-11 13:24:00,42.5,22.7,30.10,WNW,285,8.0,17.0,45,0.00,,---,0.00,VWS V14.01,2013-02-11 19:24:00,
2013-02-11 13:26:00,42.6,22.8,30.10,WSW,250,12.0,17.0,45,0.00,,---,0.00,VWS V14.01,2013-02-11 19:26:00,
2013-02-11 13:27:00,42.5,22.7,30.10,WSW,242,11.0,17.0,45,0.00,,---,0.00,VWS V14.01,2013-02-11 19:27:00,
2013-02-11 13:29:00,42.2,23.9,30.10,WSW,241,13.0,17.0,48,0.00,,---,0.00,VWS V14.01,2013-02-11 19:29:00,
2013-02-11 13:30:00,41.9,22.6,30.10,West,264,12.0,22.0,46,0.00,,---,0.00,VWS V14.01,2013-02-11 19:30:00,
2013-02-11 13:32:00,42.6,22.2,30.10,WNW,284,10.0,17.0,44,0.00,,---,0.00,VWS V14.01,2013-02-11 19:32:00,
2013-02-11 13:34:00,42.5,21.6,30.10,West,266,11.0,17.0,43,0.00,,---,0.00,VWS V14.01,2013-02-11 19:34:00,
2013-02-11 13:37:00,42.3,22.0,30.10,WSW,246,13.0,17.0,44,0.00,,---,0.00,VWS V14.01,2013-02-11 19:37:00,
2013-02-11 13:38:00,42.3,22.5,30.10,West,263,14.0,17.0,45,0.00,,---,0.00,VWS V14.01,2013-02-11 19:38:00,
2013-02-11 13:39:00,42.5,22.7,30.10,WSW,250,13.0,17.0,45,0.00,,---,0.00,VWS V14.01,2013-02-11 19:39:00,
2013-02-11 13:42:00,42.6,22.2,30.10,West,268,16.0,17.0,44,0.00,,---,0.00,VWS V14.01,2013-02-11 19:42:00,
2013-02-11 13:43:00,42.6,22.2,30.10,West,275,15.0,17.0,44,0.00,,---,0.00,VWS V14.01,2013-02-11 19:43:00,
2013-02-11 13:45:00,42.5,22.1,30.10,WNW,285,11.0,17.0,44,0.00,,---,0.00,VWS V14.01,2013-02-11 19:45:00,
2013-02-11 13:47:00,42.5,21.6,30.09,West,264,7.0,10.0,43,0.00,,---,0.00,VWS V14.01,2013-02-11 19:47:00,
2013-02-11 13:48:00,42.6,23.3,30.09,West,278,11.0,11.0,46,0.00,,---,0.00,VWS V14.01,2013-02-11 19:48:00,
2013-02-11 13:50:00,42.6,21.7,30.09,West,259,10.0,17.0,43,0.00,,---,0.00,VWS V14.01,2013-02-11 19:50:00,
2013-02-11 13:52:00,42.9,23.6,30.09,WSW,250,13.0,17.0,46,0.00,,---,0.00,VWS V14.01,2013-02-11 19:52:00,
2013-02-11 13:53:00,43.1,22.7,30.09,West,277,15.0,17.0,44,0.00,,---,0.00,VWS V14.01,2013-02-11 19:53:00,
2013-02-11 13:55:00,42.8,21.3,30.09,WSW,250,13.0,17.0,42,0.00,,---,0.00,VWS V14.01,2013-02-11 19:55:00,
2013-02-11 13:58:00,42.8,21.3,30.09,WSW,253,9.0,17.0,42,0.00,,---,0.00,VWS V14.01,2013-02-11 19:58:00,
2013-02-11 14:00:00,43.2,22.2,30.09,West,269,11.0,17.0,43,0.00,,---,0.00,VWS V14.01,2013-02-11 20:00:00,
2013-02-11 14:03:00,43.1,22.1,30.09,WNW,294,7.0,17.0,43,0.00,,---,0.00,VWS V14.01,2013-02-11 20:03:00,
2013-02-11 14:04:00,43.2,22.2,30.09,NW,320,7.0,17.0,43,0.00,,---,0.00,VWS V14.01,2013-02-11 20:04:00,
2013-02-11 14:05:00,43.5,23.0,30.09,West,272,13.0,20.0,44,0.00,,---,0.00,VWS V14.01,2013-02-11 20:05:00,
2013-02-11 14:08:00,43.2,21.7,30.09,West,280,10.0,20.0,42,0.00,,---,0.00,VWS V14.01,2013-02-11 20:08:00,
2013-02-11 14:10:00,43.3,22.3,30.09,West,274,14.0,20.0,43,0.00,,---,0.00,VWS V14.01,2013-02-11 20:10:00,
2013-02-11 14:13:00,43.3,20.6,30.09,West,276,6.0,20.0,40,0.00,,---,0.00,VWS V14.01,2013-02-11 20:13:00,
2013-02-11 14:15:00,43.8,22.2,30.09,WSW,238,14.0,20.0,42,0.00,,---,0.00,VWS V14.01,2013-02-11 20:15:00,
2013-02-11 14:16:00,43.6,20.9,30.08,West,270,12.0,20.0,40,0.00,,---,0.00,VWS V14.01,2013-02-11 20:16:00,
2013-02-11 14:19:00,43.8,21.6,30.08,WSW,247,11.0,16.0,41,0.00,,---,0.00,VWS V14.01,2013-02-11 20:19:00,
2013-02-11 14:20:00,43.5,21.4,30.08,West,274,13.0,16.0,41,0.00,,---,0.00,VWS V14.01,2013-02-11 20:20:00,
2013-02-11 14:22:00,43.5,20.8,30.08,West,271,13.0,16.0,40,0.00,,---,0.00,VWS V14.01,2013-02-11 20:22:00,
2013-02-11 14:24:00,43.5,21.4,30.08,West,264,13.0,16.0,41,0.00,,---,0.00,VWS V14.01,2013-02-11 20:24:00,
2013-02-11 14:25:00,43.3,21.8,30.08,West,269,16.0,20.0,42,0.00,,---,0.00,VWS V14.01,2013-02-11 20:25:00,
2013-02-11 14:27:00,43.1,20.4,30.08,WNW,290,10.0,20.0,40,0.00,,---,0.00,VWS V14.01,2013-02-11 20:27:00,
2013-02-11 14:29:00,43.2,22.2,30.08,WSW,255,11.0,20.0,43,0.00,,---,0.00,VWS V14.01,2013-02-11 20:29:00,
2013-02-11 14:30:00,43.2,21.7,30.08,West,266,14.0,20.0,42,0.00,,---,0.00,VWS V14.01,2013-02-11 20:30:00,
2013-02-11 14:31:00,43.1,20.4,30.08,West,265,14.0,20.0,40,0.00,,---,0.00,VWS V14.01,2013-02-11 20:31:00,
2013-02-11 14:33:00,43.5,21.4,30.08,West,276,17.0,20.0,41,0.00,,---,0.00,VWS V14.01,2013-02-11 20:33:00,
2013-02-11 14:35:00,43.3,20.6,30.08,West,264,12.0,20.0,40,0.00,,---,0.00,VWS V14.01,2013-02-11 20:35:00,
2013-02-11 14:36:00,43.2,20.5,30.08,West,272,12.0,20.0,40,0.00,,---,0.00,VWS V14.01,2013-02-11 20:36:00,
2013-02-11 14:38:00,43.2,21.7,30.08,WSW,248,13.0,20.0,42,0.00,,---,0.00,VWS V14.01,2013-02-11 20:38:00,
2013-02-11 14:40:00,43.8,21.6,30.08,WNW,285,11.0,20.0,41,0.00,,---,0.00,VWS V14.01,2013-02-11 20:40:00,
2013-02-11 14:41:00,43.9,21.2,30.08,WNW,299,12.0,20.0,40,0.00,,---,0.00,VWS V14.01,2013-02-11 20:41:00,
2013-02-11 14:43:00,43.6,20.3,30.08,West,267,11.0,20.0,39,0.00,,---,0.00,VWS V14.01,2013-02-11 20:43:00,
2013-02-11 14:45:00,43.5,20.8,30.08,WSW,255,9.0,20.0,40,0.00,,---,0.00,VWS V14.01,2013-02-11 20:45:00,
2013-02-11 14:47:00,43.5,21.4,30.07,WSW,257,10.0,20.0,41,0.00,,---,0.00,VWS V14.01,2013-02-11 20:47:00,
2013-02-11 14:48:00,43.3,20.6,30.07,West,272,11.0,13.0,40,0.00,,---,0.00,VWS V14.01,2013-02-11 20:48:00,
2013-02-11 14:50:00,43.5,20.2,30.07,West,266,10.0,13.0,39,0.00,,---,0.00,VWS V14.01,2013-02-11 20:50:00,
2013-02-11 14:52:00,43.5,20.2,30.07,WSW,253,13.0,16.0,39,0.00,,---,0.00,VWS V14.01,2013-02-11 20:52:00,
2013-02-11 14:53:00,43.8,20.5,30.07,WSW,247,9.0,16.0,39,0.00,,---,0.00,VWS V14.01,2013-02-11 20:53:00,
2013-02-11 14:55:00,44.1,20.7,30.07,West,278,5.0,16.0,39,0.00,,---,0.00,VWS V14.01,2013-02-11 20:55:00,
2013-02-11 14:56:00,44.1,20.7,30.07,West,266,5.0,16.0,39,0.00,,---,0.00,VWS V14.01,2013-02-11 20:56:00,
2013-02-11 14:57:00,44.1,21.9,30.07,SW,236,9.0,16.0,41,0.00,,---,0.00,VWS V14.01,2013-02-11 20:57:00,
2013-02-11 14:58:00,44.5,22.3,30.07,WSW,248,9.0,16.0,41,0.00,,---,0.00,VWS V14.01,2013-02-11 20:58:00,
2013-02-11 15:00:00,43.5,20.8,30.07,West,267,10.0,20.0,40,0.00,,---,0.00,VWS V14.01,2013-02-11 21:00:00,
2013-02-11 15:01:00,44.6,21.2,30.07,WNW,293,5.0,10.0,39,0.00,,---,0.00,VWS V14.01,2013-02-11 21:01:00,
2013-02-11 15:02:00,44.8,22.0,30.07,WSW,255,7.0,13.0,40,0.00,,---,0.00,VWS V14.01,2013-02-11 21:02:00,
2013-02-11 15:03:00,45.1,22.8,30.07,WSW,257,11.0,13.0,41,0.00,,---,0.00,VWS V14.01,2013-02-11 21:03:00,
2013-02-11 15:06:00,44.8,21.4,30.07,West,266,11.0,13.0,39,0.00,,---,0.00,VWS V14.01,2013-02-11 21:06:00,
2013-02-11 15:09:00,44.5,21.1,30.07,WSW,257,12.0,15.0,39,0.00,,---,0.00,VWS V14.01,2013-02-11 21:09:00,
2013-02-11 15:11:00,44.3,19.7,30.07,NW,313,5.0,15.0,37,0.00,,---,0.00,VWS V14.01,2013-02-11 21:11:00,
2013-02-11 15:12:00,44.3,20.9,30.07,NW,309,13.0,15.0,39,0.00,,---,0.00,VWS V14.01,2013-02-11 21:12:00,
2013-02-11 15:14:00,44.3,20.3,30.07,West,269,12.0,15.0,38,0.00,,---,0.00,VWS V14.01,2013-02-11 21:14:00,
2013-02-11 15:15:00,44.3,19.7,30.07,West,281,11.0,15.0,37,0.00,,---,0.00,VWS V14.01,2013-02-11 21:15:00,
2013-02-11 15:16:00,44.5,20.5,30.07,WNW,297,12.0,15.0,38,0.00,,---,0.00,VWS V14.01,2013-02-11 21:16:00,
2013-02-11 15:17:00,44.5,20.5,30.07,West,269,12.0,16.0,38,0.00,,---,0.00,VWS V14.01,2013-02-11 21:17:00,
2013-02-11 15:19:00,44.3,20.9,30.07,West,259,9.0,13.0,39,0.00,,---,0.00,VWS V14.01,2013-02-11 21:19:00,
2013-02-11 15:20:00,44.3,20.9,30.07,SW,235,12.0,13.0,39,0.00,,---,0.00,VWS V14.01,2013-02-11 21:20:00,
2013-02-11 15:22:00,44.5,20.5,30.07,West,269,13.0,17.0,38,0.00,,---,0.00,VWS V14.01,2013-02-11 21:22:00,
2013-02-11 15:25:00,44.2,19.6,30.07,West,259,6.0,17.0,37,0.00,,---,0.00,VWS V14.01,2013-02-11 21:25:00,
2013-02-11 15:27:00,44.2,20.2,30.07,West,272,7.0,17.0,38,0.00,,---,0.00,VWS V14.01,2013-02-11 21:27:00,
2013-02-11 15:30:00,44.6,21.2,30.07,WSW,247,10.0,17.0,39,0.00,,---,0.00,VWS V14.01,2013-02-11 21:30:00,
2013-02-11 15:32:00,44.8,22.0,30.07,West,272,13.0,17.0,40,0.00,,---,0.00,VWS V14.01,2013-02-11 21:32:00,
2013-02-11 15:35:00,44.6,20.0,30.07,WNW,293,4.0,17.0,37,0.00,,---,0.00,VWS V14.01,2013-02-11 21:35:00,
2013-02-11 15:36:00,44.6,20.0,30.07,WNW,287,11.0,17.0,37,0.00,,---,0.00,VWS V14.01,2013-02-11 21:36:00,
2013-02-11 15:37:00,44.5,20.5,30.07,WSW,257,7.0,17.0,38,0.00,,---,0.00,VWS V14.01,2013-02-11 21:37:00,
2013-02-11 15:38:00,44.5,20.5,30.07,WSW,244,10.0,17.0,38,0.00,,---,0.00,VWS V14.01,2013-02-11 21:38:00,
2013-02-11 15:40:00,44.8,20.8,30.07,West,261,7.0,17.0,38,0.00,,---,0.00,VWS V14.01,2013-02-11 21:40:00,
2013-02-11 15:41:00,44.8,20.8,30.07,West,262,9.0,17.0,38,0.00,,---,0.00,VWS V14.01,2013-02-11 21:41:00,
2013-02-11 15:42:00,44.8,21.4,30.07,WNW,284,7.0,17.0,39,0.00,,---,0.00,VWS V14.01,2013-02-11 21:42:00,
2013-02-11 15:43:00,44.8,21.4,30.07,WNW,285,10.0,17.0,39,0.00,,---,0.00,VWS V14.01,2013-02-11 21:43:00,
2013-02-11 15:46:00,44.8,20.1,30.07,West,259,10.0,17.0,37,0.00,,---,0.00,VWS V14.01,2013-02-11 21:46:00,
2013-02-11 15:47:00,44.5,19.9,30.07,WSW,242,12.0,12.0,37,0.00,,---,0.00,VWS V14.01,2013-02-11 21:47:00,
2013-02-11 15:48:00,44.5,19.9,30.07,WSW,240,9.0,12.0,37,0.00,,---,0.00,VWS V14.01,2013-02-11 21:48:00,
2013-02-11 15:51:00,44.6,20.6,30.07,WSW,255,9.0,14.0,38,0.00,,---,0.00,VWS V14.01,2013-02-11 21:51:00,
2013-02-11 15:53:00,44.5,19.9,30.07,West,270,6.0,14.0,37,0.00,,---,0.00,VWS V14.01,2013-02-11 21:53:00,
2013-02-11 15:56:00,44.3,19.0,30.07,WNW,289,6.0,14.0,36,0.00,,---,0.00,VWS V14.01,2013-02-11 21:56:00,
2013-02-11 15:57:00,44.3,19.0,30.07,WNW,289,5.0,14.0,36,0.00,,---,0.00,VWS V14.01,2013-02-11 21:57:00,
2013-02-11 15:58:00,44.5,19.9,30.07,WSW,244,11.0,14.0,37,0.00,,---,0.00,VWS V14.01,2013-02-11 21:58:00,
2013-02-11 15:59:00,44.5,19.2,30.07,WSW,248,14.0,14.0,36,0.00,,---,0.00,VWS V14.01,2013-02-11 21:59:00,
2013-02-11 16:00:00,44.5,19.9,30.07,WSW,250,10.0,17.0,37,0.00,,---,0.00,VWS V14.01,2013-02-11 22:00:00,
2013-02-11 16:02:00,44.5,19.9,30.07,West,269,9.0,14.0,37,0.00,,---,0.00,VWS V14.01,2013-02-11 22:02:00,
2013-02-11 16:03:00,44.2,19.6,30.07,WSW,249,5.0,14.0,37,0.00,,---,0.00,VWS V14.01,2013-02-11 22:03:00,
2013-02-11 16:04:00,44.3,20.3,30.07,SW,231,5.0,14.0,38,0.00,,---,0.00,VWS V14.01,2013-02-11 22:04:00,
2013-02-11 16:07:00,44.5,19.2,30.07,West,274,4.0,14.0,36,0.00,,---,0.00,VWS V14.01,2013-02-11 22:07:00,
2013-02-11 16:08:00,44.6,20.0,30.07,West,274,11.0,14.0,37,0.00,,---,0.00,VWS V14.01,2013-02-11 22:08:00,
2013-02-11 16:09:00,44.5,19.9,30.07,WSW,254,10.0,14.0,37,0.00,,---,0.00,VWS V14.01,2013-02-11 22:09:00,
2013-02-11 16:12:00,44.6,19.3,30.07,SW,229,14.0,14.0,36,0.00,,---,0.00,VWS V14.01,2013-02-11 22:12:00,
2013-02-11 16:13:00,44.5,19.2,30.07,WSW,251,13.0,14.0,36,0.00,,---,0.00,VWS V14.01,2013-02-11 22:13:00,
2013-02-11 16:14:00,44.5,19.2,30.07,WSW,257,11.0,14.0,36,0.00,,---,0.00,VWS V14.01,2013-02-11 22:14:00,
2013-02-11 16:17:00,44.3,19.0,30.06,West,272,5.0,14.0,36,0.00,,---,0.00,VWS V14.01,2013-02-11 22:17:00,
2013-02-11 16:20:00,44.5,19.9,30.06,West,275,10.0,10.0,37,0.00,,---,0.00,VWS V14.01,2013-02-11 22:20:00,
2013-02-11 16:21:00,44.5,19.9,30.06,West,281,7.0,10.0,37,0.00,,---,0.00,VWS V14.01,2013-02-11 22:21:00,
2013-02-11 16:22:00,44.3,19.0,30.06,West,266,6.0,10.0,36,0.00,,---,0.00,VWS V14.01,2013-02-11 22:22:00,
2013-02-11 16:25:00,44.6,19.3,30.06,SW,233,10.0,11.0,36,0.00,,---,0.00,VWS V14.01,2013-02-11 22:25:00,
2013-02-11 16:26:00,44.6,18.7,30.06,WSW,240,10.0,11.0,35,0.00,,---,0.00,VWS V14.01,2013-02-11 22:26:00,
2013-02-11 16:27:00,44.5,18.6,30.06,WSW,247,8.0,12.0,35,0.00,,---,0.00,VWS V14.01,2013-02-11 22:27:00,
2013-02-11 16:30:00,44.3,19.0,30.06,West,272,5.0,14.0,36,0.00,,---,0.00,VWS V14.01,2013-02-11 22:30:00,
2013-02-11 16:31:00,44.6,19.3,30.06,WSW,248,10.0,13.0,36,0.00,,---,0.00,VWS V14.01,2013-02-11 22:31:00,
2013-02-11 16:32:00,44.6,18.7,30.06,WSW,243,7.0,13.0,35,0.00,,---,0.00,VWS V14.01,2013-02-11 22:32:00,
2013-02-11 16:33:00,44.6,19.3,30.06,West,264,9.0,13.0,36,0.00,,---,0.00,VWS V14.01,2013-02-11 22:33:00,
2013-02-11 16:36:00,44.6,18.7,30.06,WNW,283,7.0,13.0,35,0.00,,---,0.00,VWS V14.01,2013-02-11 22:36:00,
2013-02-11 16:37:00,44.6,19.3,30.06,West,280,5.0,13.0,36,0.00,,---,0.00,VWS V14.01,2013-02-11 22:37:00,
2013-02-11 16:38:00,44.6,19.3,30.06,WNW,291,7.0,13.0,36,0.00,,---,0.00,VWS V14.01,2013-02-11 22:38:00,
2013-02-11 16:41:00,44.6,20.0,30.06,WNW,299,4.0,13.0,37,0.00,,---,0.00,VWS V14.01,2013-02-11 22:41:00,
2013-02-11 16:42:00,44.6,18.7,30.06,West,276,5.0,13.0,35,0.00,,---,0.00,VWS V14.01,2013-02-11 22:42:00,
2013-02-11 16:43:00,44.5,19.2,30.06,West,274,11.0,13.0,36,0.00,,---,0.00,VWS V14.01,2013-02-11 22:43:00,
2013-02-11 16:46:00,44.3,19.0,30.06,WSW,249,7.0,13.0,36,0.00,,---,0.00,VWS V14.01,2013-02-11 22:46:00,
2013-02-11 16:47:00,44.3,19.0,30.06,WSW,255,7.0,13.0,36,0.00,,---,0.00,VWS V14.01,2013-02-11 22:47:00,
2013-02-11 16:48:00,44.3,19.0,30.06,WNW,293,7.0,9.0,36,0.00,,---,0.00,VWS V14.01,2013-02-11 22:48:00,
2013-02-11 16:49:00,44.2,19.0,30.06,WNW,287,6.0,9.0,36,0.00,,---,0.00,VWS V14.01,2013-02-11 22:49:00,
2013-02-11 16:52:00,44.1,18.9,30.06,West,281,5.0,9.0,36,0.00,,---,0.00,VWS V14.01,2013-02-11 22:52:00,
2013-02-11 16:53:00,44.1,19.5,30.06,WSW,250,5.0,9.0,37,0.00,,---,0.00,VWS V14.01,2013-02-11 22:53:00,
2013-02-11 16:54:00,44.2,19.0,30.06,WSW,255,4.0,9.0,36,0.00,,---,0.00,VWS V14.01,2013-02-11 22:54:00,
2013-02-11 16:57:00,44.2,19.0,30.06,WSW,257,9.0,10.0,36,0.00,,---,0.00,VWS V14.01,2013-02-11 22:57:00,
2013-02-11 16:58:00,44.2,19.0,30.06,SW,235,12.0,12.0,36,0.00,,---,0.00,VWS V14.01,2013-02-11 22:58:00,
2013-02-11 17:00:00,44.2,19.0,30.06,West,269,10.0,12.0,36,0.00,,---,0.00,VWS V14.01,2013-02-11 23:00:00,
2013-02-11 17:03:00,44.2,19.6,30.06,West,280,7.0,12.0,37,0.00,,---,0.00,VWS V14.01,2013-02-11 23:03:00,
2013-02-11 17:05:00,44.1,19.5,30.06,WSW,257,6.0,12.0,37,0.00,,---,0.00,VWS V14.01,2013-02-11 23:05:00,
2013-02-11 17:08:00,44.1,20.1,30.06,West,259,4.0,12.0,38,0.00,,---,0.00,VWS V14.01,2013-02-11 23:08:00,
2013-02-11 17:09:00,44.1,20.1,30.06,West,264,5.0,12.0,38,0.00,,---,0.00,VWS V14.01,2013-02-11 23:09:00,
2013-02-11 17:10:00,43.9,18.7,30.06,NW,305,5.0,12.0,36,0.00,,---,0.00,VWS V14.01,2013-02-11 23:10:00,
2013-02-11 17:13:00,43.8,18.6,30.06,West,264,7.0,12.0,36,0.00,,---,0.00,VWS V14.01,2013-02-11 23:13:00,
2013-02-11 17:14:00,43.8,19.2,30.06,WSW,253,7.0,12.0,37,0.00,,---,0.00,VWS V14.01,2013-02-11 23:14:00,
2013-02-11 17:16:00,43.8,19.2,30.06,West,263,7.0,12.0,37,0.00,,---,0.00,VWS V14.01,2013-02-11 23:16:00,
2013-02-11 17:18:00,43.6,19.1,30.07,WSW,248,7.0,10.0,37,0.00,,---,0.00,VWS V14.01,2013-02-11 23:18:00,
2013-02-11 17:20:00,43.6,19.1,30.07,West,262,7.0,10.0,37,0.00,,---,0.00,VWS V14.01,2013-02-11 23:20:00,
2013-02-11 17:21:00,43.6,19.7,30.07,WSW,252,7.0,10.0,38,0.00,,---,0.00,VWS V14.01,2013-02-11 23:21:00,
2013-02-11 17:23:00,43.5,19.6,30.07,WSW,252,5.0,10.0,38,0.00,,---,0.00,VWS V14.01,2013-02-11 23:23:00,
2013-02-11 17:24:00,43.3,19.4,30.07,WSW,252,5.0,10.0,38,0.00,,---,0.00,VWS V14.01,2013-02-11 23:24:00,
2013-02-11 17:25:00,43.3,19.4,30.07,WSW,252,5.0,10.0,38,0.00,,---,0.00,VWS V14.01,2013-02-11 23:25:00,
2013-02-11 17:26:00,43.2,19.9,30.07,West,270,5.0,10.0,39,0.00,,---,0.00,VWS V14.01,2013-02-11 23:26:00,
2013-02-11 17:29:00,43.2,19.3,30.07,West,271,6.0,10.0,38,0.00,,---,0.00,VWS V14.01,2013-02-11 23:29:00,
2013-02-11 17:30:00,43.1,19.2,30.07,West,269,5.0,10.0,38,0.00,,---,0.00,VWS V14.01,2013-02-11 23:30:00,
2013-02-11 17:31:00,43.1,19.2,30.07,West,278,7.0,10.0,38,0.00,,---,0.00,VWS V14.01,2013-02-11 23:31:00,
2013-02-11 17:34:00,42.9,19.1,30.07,West,266,6.0,10.0,38,0.00,,---,0.00,VWS V14.01,2013-02-11 23:34:00,
2013-02-11 17:35:00,42.9,19.7,30.07,West,277,7.0,10.0,39,0.00,,---,0.00,VWS V14.01,2013-02-11 23:35:00,
2013-02-11 17:38:00,42.8,19.6,30.07,West,260,7.0,10.0,39,0.00,,---,0.00,VWS V14.01,2013-02-11 23:38:00,
2013-02-11 17:39:00,42.6,20.0,30.07,West,271,7.0,10.0,40,0.00,,---,0.00,VWS V14.01,2013-02-11 23:39:00,
2013-02-11 17:40:00,42.5,19.3,30.07,West,268,6.0,10.0,39,0.00,,---,0.00,VWS V14.01,2013-02-11 23:40:00,
2013-02-11 17:41:00,42.5,19.3,30.07,West,262,6.0,10.0,39,0.00,,---,0.00,VWS V14.01,2013-02-11 23:41:00,
2013-02-11 17:43:00,42.3,19.7,30.07,West,268,5.0,10.0,40,0.00,,---,0.00,VWS V14.01,2013-02-11 23:43:00,
2013-02-11 17:45:00,42.1,20.1,30.07,West,267,6.0,10.0,41,0.00,,---,0.00,VWS V14.01,2013-02-11 23:45:00,
2013-02-11 17:46:00,42.1,20.1,30.07,West,260,4.0,10.0,41,0.00,,---,0.00,VWS V14.01,2013-02-11 23:46:00,
2013-02-11 17:48:00,41.6,19.7,30.07,WSW,257,7.0,8.0,41,0.00,,---,0.00,VWS V14.01,2013-02-11 23:48:00,
2013-02-11 17:50:00,41.6,19.7,30.07,WSW,257,5.0,8.0,41,0.00,,---,0.00,VWS V14.01,2013-02-11 23:50:00,
2013-02-11 17:51:00,41.5,20.1,30.07,WSW,257,5.0,8.0,42,0.00,,---,0.00,VWS V14.01,2013-02-11 23:51:00,
2013-02-11 17:53:00,41.2,20.4,30.07,WSW,254,6.0,8.0,43,0.00,,---,0.00,VWS V14.01,2013-02-11 23:53:00,
2013-02-11 17:55:00,40.9,20.7,30.07,WSW,254,5.0,8.0,44,0.00,,---,0.00,VWS V14.01,2013-02-11 23:55:00,
2013-02-11 17:56:00,40.8,20.6,30.07,WSW,257,4.0,8.0,44,0.00,,---,0.00,VWS V14.01,2013-02-11 23:56:00,
2013-02-11 17:58:00,40.6,20.4,30.07,WSW,257,5.0,8.0,44,0.00,,---,0.00,VWS V14.01,2013-02-11 23:58:00,
2013-02-11 18:00:00,40.5,20.9,30.07,WSW,257,6.0,6.0,45,0.00,,---,0.00,VWS V14.01,2013-02-12 00:00:00,
2013-02-11 18:01:00,40.3,20.7,30.07,WSW,257,4.0,6.0,45,0.00,,---,0.00,VWS V14.01,2013-02-12 00:01:00,
2013-02-11 18:03:00,40.1,20.5,30.07,WSW,257,4.0,6.0,45,0.00,,---,0.00,VWS V14.01,2013-02-12 00:03:00,
2013-02-11 18:06:00,39.9,20.3,30.07,WSW,257,4.0,6.0,45,0.00,,---,0.00,VWS V14.01,2013-02-12 00:06:00,
2013-02-11 18:07:00,39.9,20.8,30.07,WSW,257,3.0,6.0,46,0.00,,---,0.00,VWS V14.01,2013-02-12 00:07:00,
2013-02-11 18:09:00,39.8,20.2,30.07,WSW,257,4.0,6.0,45,0.00,,---,0.00,VWS V14.01,2013-02-12 00:09:00,
2013-02-11 18:11:00,39.8,20.7,30.07,WSW,257,2.0,6.0,46,0.00,,---,0.00,VWS V14.01,2013-02-12 00:11:00,
2013-02-11 18:12:00,39.6,20.5,30.07,WSW,257,4.0,6.0,46,0.00,,---,0.00,VWS V14.01,2013-02-12 00:12:00,
2013-02-11 18:14:00,39.6,20.5,30.07,WSW,257,3.0,6.0,46,0.00,,---,0.00,VWS V14.01,2013-02-12 00:14:00,
2013-02-11 18:16:00,39.5,20.5,30.07,WSW,257,3.0,6.0,46,0.00,,---,0.00,VWS V14.01,2013-02-12 00:16:00,
2013-02-11 18:17:00,39.5,20.5,30.08,WSW,257,3.0,6.0,46,0.00,,---,0.00,VWS V14.01,2013-02-12 00:17:00,
2013-02-11 18:18:00,39.3,20.3,30.08,WSW,257,3.0,3.0,46,0.00,,---,0.00,VWS V14.01,2013-02-12 00:18:00,
2013-02-11 18:19:00,39.2,20.7,30.08,WSW,257,3.0,3.0,47,0.00,,---,0.00,VWS V14.01,2013-02-12 00:19:00,
2013-02-11 18:21:00,39.2,20.7,30.08,WSW,257,4.0,4.0,47,0.00,,---,0.00,VWS V14.01,2013-02-12 00:21:00,
2013-02-11 18:23:00,38.9,20.4,30.08,WSW,257,4.0,4.0,47,0.00,,---,0.00,VWS V14.01,2013-02-12 00:23:00,
2013-02-11 18:24:00,38.9,20.4,30.08,WSW,257,3.0,4.0,47,0.00,,---,0.00,VWS V14.01,2013-02-12 00:24:00,
2013-02-11 18:25:00,38.9,20.4,30.08,WSW,257,4.0,5.0,47,0.00,,---,0.00,VWS V14.01,2013-02-12 00:25:00,
2013-02-11 18:26:00,38.9,19.9,30.08,WSW,257,3.0,5.0,46,0.00,,---,0.00,VWS V14.01,2013-02-12 00:26:00,
2013-02-11 18:29:00,38.9,19.9,30.08,WSW,257,3.0,5.0,46,0.00,,---,0.00,VWS V14.01,2013-02-12 00:29:00,
2013-02-11 18:30:00,39.5,20.5,30.08,WSW,257,3.0,6.0,46,0.00,,---,0.00,VWS V14.01,2013-02-12 00:30:00,
2013-02-11 18:31:00,38.8,19.8,30.08,WSW,257,4.0,5.0,46,0.00,,---,0.00,VWS V14.01,2013-02-12 00:31:00,
2013-02-11 18:32:00,38.8,19.8,30.08,WSW,257,3.0,5.0,46,0.00,,---,0.00,VWS V14.01,2013-02-12 00:32:00,
2013-02-11 18:34:00,38.8,19.8,30.08,WSW,257,4.0,5.0,46,0.00,,---,0.00,VWS V14.01,2013-02-12 00:34:00,
2013-02-11 18:36:00,38.8,19.8,30.08,WSW,257,3.0,5.0,46,0.00,,---,0.00,VWS V14.01,2013-02-12 00:36:00,
2013-02-11 18:37:00,38.6,19.6,30.08,WSW,257,4.0,5.0,46,0.00,,---,0.00,VWS V14.01,2013-02-12 00:37:00,
2013-02-11 18:39:00,38.6,19.6,30.08,WSW,257,3.0,5.0,46,0.00,,---,0.00,VWS V14.01,2013-02-12 00:39:00,
2013-02-11 18:40:00,38.6,19.6,30.08,WSW,257,4.0,5.0,46,0.00,,---,0.00,VWS V14.01,2013-02-12 00:40:00,
2013-02-11 18:41:00,38.5,20.0,30.08,WSW,257,3.0,5.0,47,0.00,,---,0.00,VWS V14.01,2013-02-12 00:41:00,
2013-02-11 18:43:00,38.3,19.9,30.08,WSW,257,3.0,5.0,47,0.00,,---,0.00,VWS V14.01,2013-02-12 00:43:00,
2013-02-11 18:44:00,38.3,19.9,30.08,WSW,257,3.0,5.0,47,0.00,,---,0.00,VWS V14.01,2013-02-12 00:44:00,
2013-02-11 18:45:00,38.3,19.9,30.08,WSW,257,3.0,5.0,47,0.00,,---,0.00,VWS V14.01,2013-02-12 00:45:00,
2013-02-11 18:46:00,38.2,19.8,30.08,WSW,257,4.0,5.0,47,0.00,,---,0.00,VWS V14.01,2013-02-12 00:46:00,
2013-02-11 18:47:00,38.0,19.6,30.08,WSW,257,2.0,3.0,47,0.00,,---,0.00,VWS V14.01,2013-02-12 00:47:00,
2013-02-11 18:50:00,38.0,19.6,30.08,WSW,257,2.0,4.0,47,0.00,,---,0.00,VWS V14.01,2013-02-12 00:50:00,
2013-02-11 18:52:00,37.9,19.5,30.08,WSW,257,3.0,4.0,47,0.00,,---,0.00,VWS V14.01,2013-02-12 00:52:00,
2013-02-11 18:53:00,38.0,19.6,30.08,WSW,257,4.0,4.0,47,0.00,,---,0.00,VWS V14.01,2013-02-12 00:53:00,
2013-02-11 18:55:00,37.9,19.5,30.08,WSW,257,3.0,4.0,47,0.00,,---,0.00,VWS V14.01,2013-02-12 00:55:00,
2013-02-11 18:57:00,37.8,19.4,30.08,WSW,257,2.0,4.0,47,0.00,,---,0.00,VWS V14.01,2013-02-12 00:57:00,
2013-02-11 18:58:00,37.8,19.4,30.08,WSW,257,3.0,4.0,47,0.00,,---,0.00,VWS V14.01,2013-02-12 00:58:00,
2013-02-11 19:00:00,37.8,19.9,30.08,WSW,257,2.0,4.0,48,0.00,,---,0.00,VWS V14.01,2013-02-12 01:00:00,
2013-02-11 19:02:00,37.6,19.7,30.09,WSW,257,2.0,4.0,48,0.00,,---,0.00,VWS V14.01,2013-02-12 01:02:00,
2013-02-11 19:03:00,37.6,19.7,30.09,WSW,257,2.0,4.0,48,0.00,,---,0.00,VWS V14.01,2013-02-12 01:03:00,
2013-02-11 19:05:00,37.3,19.9,30.09,WSW,257,2.0,4.0,49,0.00,,---,0.00,VWS V14.01,2013-02-12 01:05:00,
2013-02-11 19:06:00,37.2,19.8,30.09,WSW,257,2.0,4.0,49,0.00,,---,0.00,VWS V14.01,2013-02-12 01:06:00,
2013-02-11 19:07:00,37.0,19.6,30.09,WSW,257,2.0,4.0,49,0.00,,---,0.00,VWS V14.01,2013-02-12 01:07:00,
2013-02-11 19:08:00,37.0,19.6,30.09,WSW,257,2.0,4.0,49,0.00,,---,0.00,VWS V14.01,2013-02-12 01:08:00,
2013-02-11 19:10:00,36.8,19.9,30.09,WSW,257,2.0,4.0,50,0.00,,---,0.00,VWS V14.01,2013-02-12 01:10:00,
2013-02-11 19:11:00,36.6,19.7,30.09,WSW,257,2.0,4.0,50,0.00,,---,0.00,VWS V14.01,2013-02-12 01:11:00,
2013-02-11 19:12:00,36.6,19.7,30.09,WSW,257,3.0,4.0,50,0.00,,---,0.00,VWS V14.01,2013-02-12 01:12:00,
2013-02-11 19:13:00,36.5,20.1,30.09,WSW,257,2.0,4.0,51,0.00,,---,0.00,VWS V14.01,2013-02-12 01:13:00,
2013-02-11 19:15:00,36.2,19.8,30.09,WSW,257,2.0,4.0,51,0.00,,---,0.00,VWS V14.01,2013-02-12 01:15:00,
2013-02-11 19:16:00,36.2,19.8,30.09,WSW,257,2.0,4.0,51,0.00,,---,0.00,VWS V14.01,2013-02-12 01:16:00,
2013-02-11 19:17:00,36.0,19.6,30.10,WSW,257,3.0,3.0,51,0.00,,---,0.00,VWS V14.01,2013-02-12 01:17:00,
2013-02-11 19:19:00,35.9,19.5,30.10,WSW,257,2.0,3.0,51,0.00,,---,0.00,VWS V14.01,2013-02-12 01:19:00,
2013-02-11 19:21:00,35.9,19.5,30.10,WSW,257,1.0,3.0,51,0.00,,---,0.00,VWS V14.01,2013-02-12 01:21:00,
2013-02-11 19:22:00,35.8,19.5,30.10,WSW,257,1.0,3.0,51,0.00,,---,0.00,VWS V14.01,2013-02-12 01:22:00,
2013-02-11 19:23:00,35.8,19.5,30.10,WSW,257,1.0,3.0,51,0.00,,---,0.00,VWS V14.01,2013-02-12 01:23:00,
2013-02-11 19:24:00,35.8,19.5,30.10,WSW,257,1.0,3.0,51,0.00,,---,0.00,VWS V14.01,2013-02-12 01:24:00,
2013-02-11 19:26:00,35.8,19.5,30.10,WSW,257,1.0,3.0,51,0.00,,---,0.00,VWS V14.01,2013-02-12 01:26:00,
2013-02-11 19:27:00,35.8,19.5,30.10,WSW,257,2.0,3.0,51,0.00,,---,0.00,VWS V14.01,2013-02-12 01:27:00,
2013-02-11 19:28:00,35.6,19.3,30.10,WSW,257,2.0,3.0,51,0.00,,---,0.00,VWS V14.01,2013-02-12 01:28:00,
2013-02-11 19:29:00,35.6,19.3,30.10,WSW,257,1.0,3.0,51,0.00,,---,0.00,VWS V14.01,2013-02-12 01:29:00,
2013-02-11 19:30:00,36.0,19.6,30.10,WSW,257,1.0,4.0,51,0.00,,---,0.00,VWS V14.01,2013-02-12 01:30:00,
2013-02-11 19:31:00,35.6,19.3,30.10,WSW,257,1.0,3.0,51,0.00,,---,0.00,VWS V14.01,2013-02-12 01:31:00,
2013-02-11 19:32:00,35.6,19.3,30.10,WSW,257,1.0,3.0,51,0.00,,---,0.00,VWS V14.01,2013-02-12 01:32:00,
2013-02-11 19:33:00,35.6,19.3,30.10,WSW,257,2.0,3.0,51,0.00,,---,0.00,VWS V14.01,2013-02-12 01:33:00,
2013-02-11 19:34:00,35.6,19.3,30.10,WSW,257,2.0,3.0,51,0.00,,---,0.00,VWS V14.01,2013-02-12 01:34:00,
2013-02-11 19:36:00,35.8,19.5,30.10,WSW,257,3.0,3.0,51,0.00,,---,0.00,VWS V14.01,2013-02-12 01:36:00,
2013-02-11 19:37:00,35.8,19.5,30.10,WSW,257,2.0,4.0,51,0.00,,---,0.00,VWS V14.01,2013-02-12 01:37:00,
2013-02-11 19:38:00,35.5,19.6,30.10,WSW,257,4.0,4.0,52,0.00,,---,0.00,VWS V14.01,2013-02-12 01:38:00,
2013-02-11 19:40:00,35.0,19.2,30.10,WSW,257,2.0,4.0,52,0.00,,---,0.00,VWS V14.01,2013-02-12 01:40:00,
2013-02-11 19:42:00,35.0,19.6,30.10,WSW,257,3.0,4.0,53,0.00,,---,0.00,VWS V14.01,2013-02-12 01:42:00,
2013-02-11 19:43:00,35.0,19.6,30.10,WSW,257,2.0,4.0,53,0.00,,---,0.00,VWS V14.01,2013-02-12 01:43:00,
2013-02-11 19:45:00,35.3,19.5,30.10,WSW,257,2.0,4.0,52,0.00,,---,0.00,VWS V14.01,2013-02-12 01:45:00,
2013-02-11 19:47:00,35.8,19.5,30.10,WSW,257,2.0,2.0,51,0.00,,---,0.00,VWS V14.01,2013-02-12 01:47:00,
2013-02-11 19:48:00,35.8,19.5,30.10,WSW,257,1.0,2.0,51,0.00,,---,0.00,VWS V14.01,2013-02-12 01:48:00,
2013-02-11 19:49:00,35.9,19.5,30.10,WSW,257,2.0,2.0,51,0.00,,---,0.00,VWS V14.01,2013-02-12 01:49:00,
2013-02-11 19:50:00,35.9,19.5,30.10,WSW,257,2.0,2.0,51,0.00,,---,0.00,VWS V14.01,2013-02-12 01:50:00,
2013-02-11 19:52:00,36.0,19.6,30.10,WSW,257,0.0,2.0,51,0.00,,---,0.00,VWS V14.01,2013-02-12 01:52:00,
2013-02-11 19:53:00,36.0,19.2,30.10,WSW,257,0.0,2.0,50,0.00,,---,0.00,VWS V14.01,2013-02-12 01:53:00,
2013-02-11 19:54:00,36.0,19.2,30.10,WSW,257,1.0,2.0,50,0.00,,---,0.00,VWS V14.01,2013-02-12 01:54:00,
2013-02-11 19:55:00,36.2,19.4,30.10,WSW,257,1.0,2.0,50,0.00,,---,0.00,VWS V14.01,2013-02-12 01:55:00,
2013-02-11 19:57:00,36.2,19.4,30.10,WSW,257,1.0,2.0,50,0.00,,---,0.00,VWS V14.01,2013-02-12 01:57:00,
2013-02-11 19:59:00,36.2,19.4,30.10,WSW,257,0.0,2.0,50,0.00,,---,0.00,VWS V14.01,2013-02-12 01:59:00,
2013-02-11 20:00:00,36.3,19.0,30.10,WSW,257,0.0,2.0,49,0.00,,---,0.00,VWS V14.01,2013-02-12 02:00:00,
2013-02-11 20:02:00,36.5,19.2,30.10,WSW,257,0.0,2.0,49,0.00,,---,0.00,VWS V14.01,2013-02-12 02:02:00,
2013-02-11 20:04:00,36.5,19.2,30.10,WSW,257,0.0,2.0,49,0.00,,---,0.00,VWS V14.01,2013-02-12 02:04:00,
2013-02-11 20:06:00,36.5,19.2,30.10,WSW,257,0.0,2.0,49,0.00,,---,0.00,VWS V14.01,2013-02-12 02:06:00,
2013-02-11 20:07:00,36.3,19.0,30.10,WSW,257,0.0,2.0,49,0.00,,---,0.00,VWS V14.01,2013-02-12 02:07:00,
2013-02-11 20:09:00,36.3,19.0,30.10,WSW,257,0.0,2.0,49,0.00,,---,0.00,VWS V14.01,2013-02-12 02:09:00,
2013-02-11 20:11:00,36.3,19.0,30.10,WSW,257,0.0,2.0,49,0.00,,---,0.00,VWS V14.01,2013-02-12 02:11:00,
2013-02-11 20:13:00,36.3,19.0,30.10,WSW,257,2.0,2.0,49,0.00,,---,0.00,VWS V14.01,2013-02-12 02:13:00,
2013-02-11 20:14:00,36.3,19.0,30.10,WSW,257,1.0,2.0,49,0.00,,---,0.00,VWS V14.01,2013-02-12 02:14:00,
2013-02-11 20:16:00,36.3,19.0,30.10,WSW,257,2.0,2.0,49,0.00,,---,0.00,VWS V14.01,2013-02-12 02:16:00,
2013-02-11 20:18:00,36.0,19.2,30.11,WSW,257,2.0,2.0,50,0.00,,---,0.00,VWS V14.01,2013-02-12 02:18:00,
2013-02-11 20:19:00,35.6,19.3,30.11,WSW,257,2.0,3.0,51,0.00,,---,0.00,VWS V14.01,2013-02-12 02:19:00,
2013-02-11 20:21:00,35.3,19.5,30.11,WSW,257,3.0,3.0,52,0.00,,---,0.00,VWS V14.01,2013-02-12 02:21:00,
2013-02-11 20:23:00,35.0,19.2,30.11,WSW,257,2.0,3.0,52,0.00,,---,0.00,VWS V14.01,2013-02-12 02:23:00,
2013-02-11 20:25:00,34.9,19.5,30.11,WSW,257,1.0,3.0,53,0.00,,---,0.00,VWS V14.01,2013-02-12 02:25:00,
2013-02-11 20:26:00,34.7,19.3,30.11,WSW,257,0.0,3.0,53,0.00,,---,0.00,VWS V14.01,2013-02-12 02:26:00,
2013-02-11 20:28:00,34.6,19.2,30.11,WSW,257,0.0,3.0,53,0.00,,---,0.00,VWS V14.01,2013-02-12 02:28:00,
2013-02-11 20:30:00,34.4,19.0,30.11,WSW,257,0.0,3.0,53,0.00,,---,0.00,VWS V14.01,2013-02-12 02:30:00,
2013-02-11 20:31:00,34.3,19.4,30.11,WSW,257,0.0,3.0,54,0.00,,---,0.00,VWS V14.01,2013-02-12 02:31:00,
2013-02-11 20:33:00,34.1,19.2,30.11,WSW,257,2.0,3.0,54,0.00,,---,0.00,VWS V14.01,2013-02-12 02:33:00,
2013-02-11 20:35:00,34.0,19.1,30.11,WSW,257,0.0,3.0,54,0.00,,---,0.00,VWS V14.01,2013-02-12 02:35:00,
2013-02-11 20:36:00,33.8,19.4,30.11,WSW,257,0.0,3.0,55,0.00,,---,0.00,VWS V14.01,2013-02-12 02:36:00,
2013-02-11 20:39:00,33.7,19.7,30.11,WSW,257,0.0,3.0,56,0.00,,---,0.00,VWS V14.01,2013-02-12 02:39:00,
2013-02-11 20:40:00,33.5,19.5,30.11,WSW,257,0.0,3.0,56,0.00,,---,0.00,VWS V14.01,2013-02-12 02:40:00,
2013-02-11 20:42:00,33.5,19.5,30.11,WSW,257,0.0,3.0,56,0.00,,---,0.00,VWS V14.01,2013-02-12 02:42:00,
2013-02-11 20:44:00,33.4,19.4,30.11,WSW,257,0.0,3.0,56,0.00,,---,0.00,VWS V14.01,2013-02-12 02:44:00,
2013-02-11 20:45:00,33.2,19.6,30.11,WSW,257,0.0,3.0,57,0.00,,---,0.00,VWS V14.01,2013-02-12 02:45:00,
2013-02-11 20:46:00,33.2,19.6,30.11,WSW,257,0.0,3.0,57,0.00,,---,0.00,VWS V14.01,2013-02-12 02:46:00,
2013-02-11 20:48:00,33.1,19.5,30.12,WSW,257,0.0,0.0,57,0.00,,---,0.00,VWS V14.01,2013-02-12 02:48:00,
2013-02-11 20:49:00,33.1,19.5,30.12,WSW,257,0.0,0.0,57,0.00,,---,0.00,VWS V14.01,2013-02-12 02:49:00,
2013-02-11 20:50:00,32.9,19.4,30.12,WSW,257,0.0,0.0,57,0.00,,---,0.00,VWS V14.01,2013-02-12 02:50:00,
2013-02-11 20:51:00,32.9,19.4,30.12,WSW,257,0.0,0.0,57,0.00,,---,0.00,VWS V14.01,2013-02-12 02:51:00,
2013-02-11 20:53:00,33.1,19.5,30.12,WSW,257,0.0,0.0,57,0.00,,---,0.00,VWS V14.01,2013-02-12 02:53:00,
2013-02-11 20:54:00,33.1,19.5,30.12,WSW,257,0.0,0.0,57,0.00,,---,0.00,VWS V14.01,2013-02-12 02:54:00,
2013-02-11 20:56:00,33.2,19.2,30.12,WSW,257,0.0,1.0,56,0.00,,---,0.00,VWS V14.01,2013-02-12 02:56:00,
2013-02-11 20:58:00,33.5,19.1,30.12,WSW,257,3.0,3.0,55,0.00,,---,0.00,VWS V14.01,2013-02-12 02:58:00,
2013-02-11 20:59:00,33.5,19.1,30.12,WSW,257,3.0,3.0,55,0.00,,---,0.00,VWS V14.01,2013-02-12 02:59:00,
2013-02-11 21:00:00,33.1,19.5,30.12,WSW,257,0.0,3.0,57,0.00,,---,0.00,VWS V14.01,2013-02-12 03:00:00,
2013-02-11 21:01:00,33.7,19.3,30.12,WSW,257,2.0,3.0,55,0.00,,---,0.00,VWS V14.01,2013-02-12 03:01:00,
2013-02-11 21:03:00,33.7,19.3,30.11,WSW,257,3.0,3.0,55,0.00,,---,0.00,VWS V14.01,2013-02-12 03:03:00,
2013-02-11 21:04:00,33.7,19.3,30.11,WSW,257,2.0,3.0,55,0.00,,---,0.00,VWS V14.01,2013-02-12 03:04:00,
2013-02-11 21:06:00,33.5,19.1,30.11,WSW,257,2.0,3.0,55,0.00,,---,0.00,VWS V14.01,2013-02-12 03:06:00,
2013-02-11 21:07:00,33.5,19.1,30.11,WSW,257,2.0,3.0,55,0.00,,---,0.00,VWS V14.01,2013-02-12 03:07:00,
2013-02-11 21:08:00,33.5,19.1,30.11,WSW,257,2.0,3.0,55,0.00,,---,0.00,VWS V14.01,2013-02-12 03:08:00,
2013-02-11 21:09:00,33.5,19.1,30.11,WSW,257,2.0,3.0,55,0.00,,---,0.00,VWS V14.01,2013-02-12 03:09:00,
2013-02-11 21:12:00,33.5,19.1,30.11,WSW,257,1.0,3.0,55,0.00,,---,0.00,VWS V14.01,2013-02-12 03:12:00,
2013-02-11 21:13:00,33.4,19.0,30.11,WSW,257,2.0,3.0,55,0.00,,---,0.00,VWS V14.01,2013-02-12 03:13:00,
2013-02-11 21:15:00,33.4,19.0,30.11,WSW,257,1.0,3.0,55,0.00,,---,0.00,VWS V14.01,2013-02-12 03:15:00,
2013-02-11 21:17:00,33.4,19.0,30.12,WSW,257,0.0,0.0,55,0.00,,---,0.00,VWS V14.01,2013-02-12 03:17:00,
2013-02-11 21:18:00,33.4,19.0,30.12,WSW,257,0.0,0.0,55,0.00,,---,0.00,VWS V14.01,2013-02-12 03:18:00,
2013-02-11 21:19:00,33.4,19.0,30.12,WSW,257,0.0,0.0,55,0.00,,---,0.00,VWS V14.01,2013-02-12 03:19:00,
2013-02-11 21:21:00,33.4,19.4,30.12,WSW,257,1.0,2.0,56,0.00,,---,0.00,VWS V14.01,2013-02-12 03:21:00,
2013-02-11 21:22:00,33.4,19.4,30.12,WSW,257,0.0,2.0,56,0.00,,---,0.00,VWS V14.01,2013-02-12 03:22:00,
2013-02-11 21:23:00,33.2,19.2,30.12,WSW,257,2.0,2.0,56,0.00,,---,0.00,VWS V14.01,2013-02-12 03:23:00,
2013-02-11 21:25:00,33.2,19.2,30.12,WSW,257,1.0,2.0,56,0.00,,---,0.00,VWS V14.01,2013-02-12 03:25:00,
2013-02-11 21:26:00,33.2,19.2,30.12,WSW,257,2.0,2.0,56,0.00,,---,0.00,VWS V14.01,2013-02-12 03:26:00,
2013-02-11 21:27:00,33.2,19.2,30.12,WSW,257,2.0,2.0,56,0.00,,---,0.00,VWS V14.01,2013-02-12 03:27:00,
2013-02-11 21:28:00,33.2,19.2,30.12,WSW,257,2.0,2.0,56,0.00,,---,0.00,VWS V14.01,2013-02-12 03:28:00,
2013-02-11 21:30:00,33.4,19.4,30.12,WSW,257,2.0,3.0,56,0.00,,---,0.00,VWS V14.01,2013-02-12 03:30:00,
2013-02-11 21:31:00,33.4,19.4,30.12,WSW,257,2.0,4.0,56,0.00,,---,0.00,VWS V14.01,2013-02-12 03:31:00,
2013-02-11 21:32:00,33.5,19.1,30.12,WSW,257,2.0,4.0,55,0.00,,---,0.00,VWS V14.01,2013-02-12 03:32:00,
2013-02-11 21:34:00,33.5,19.1,30.12,WSW,257,3.0,4.0,55,0.00,,---,0.00,VWS V14.01,2013-02-12 03:34:00,
2013-02-11 21:35:00,33.5,19.1,30.12,WSW,257,3.0,4.0,55,0.00,,---,0.00,VWS V14.01,2013-02-12 03:35:00,
2013-02-11 21:37:00,33.7,19.3,30.12,WSW,257,3.0,4.0,55,0.00,,---,0.00,VWS V14.01,2013-02-12 03:37:00,
2013-02-11 21:39:00,33.7,19.3,30.12,WSW,257,2.0,4.0,55,0.00,,---,0.00,VWS V14.01,2013-02-12 03:39:00,
2013-02-11 21:40:00,33.7,19.3,30.12,WSW,257,2.0,4.0,55,0.00,,---,0.00,VWS V14.01,2013-02-12 03:40:00,
2013-02-11 21:41:00,33.7,19.3,30.12,WSW,257,1.0,4.0,55,0.00,,---,0.00,VWS V14.01,2013-02-12 03:41:00,
2013-02-11 21:42:00,33.7,19.3,30.12,WSW,257,2.0,4.0,55,0.00,,---,0.00,VWS V14.01,2013-02-12 03:42:00,
2013-02-11 21:45:00,33.5,19.1,30.12,WSW,257,1.0,4.0,55,0.00,,---,0.00,VWS V14.01,2013-02-12 03:45:00,
2013-02-11 21:46:00,33.5,19.1,30.12,WSW,257,3.0,4.0,55,0.00,,---,0.00,VWS V14.01,2013-02-12 03:46:00,
2013-02-11 21:47:00,33.5,19.1,30.12,WSW,257,3.0,4.0,55,0.00,,---,0.00,VWS V14.01,2013-02-12 03:47:00,
2013-02-11 21:50:00,33.7,19.3,30.12,WSW,257,4.0,4.0,55,0.00,,---,0.00,VWS V14.01,2013-02-12 03:50:00,
2013-02-11 21:51:00,33.5,19.1,30.12,WSW,257,4.0,4.0,55,0.00,,---,0.00,VWS V14.01,2013-02-12 03:51:00,
2013-02-11 21:52:00,33.5,19.1,30.12,WSW,257,2.0,4.0,55,0.00,,---,0.00,VWS V14.01,2013-02-12 03:52:00,
2013-02-11 21:55:00,33.1,19.1,30.12,WSW,257,2.0,4.0,56,0.00,,---,0.00,VWS V14.01,2013-02-12 03:55:00,
2013-02-11 21:56:00,32.9,18.9,30.12,WSW,257,3.0,4.0,56,0.00,,---,0.00,VWS V14.01,2013-02-12 03:56:00,
2013-02-11 21:57:00,32.8,19.3,30.12,WSW,257,3.0,4.0,57,0.00,,---,0.00,VWS V14.01,2013-02-12 03:57:00,
2013-02-11 22:00:00,32.7,19.2,30.12,West,259,4.0,4.0,57,0.00,,---,0.00,VWS V14.01,2013-02-12 04:00:00,
2013-02-11 22:01:00,32.7,19.2,30.12,West,259,3.0,4.0,57,0.00,,---,0.00,VWS V14.01,2013-02-12 04:01:00,
2013-02-11 22:02:00,32.7,19.2,30.12,West,259,3.0,4.0,57,0.00,,---,0.00,VWS V14.01,2013-02-12 04:02:00,
2013-02-11 22:05:00,32.5,19.0,30.12,West,259,4.0,5.0,57,0.00,,---,0.00,VWS V14.01,2013-02-12 04:05:00,
2013-02-11 22:06:00,32.5,19.0,30.12,West,270,4.0,5.0,57,0.00,,---,0.00,VWS V14.01,2013-02-12 04:06:00,
2013-02-11 22:07:00,32.5,19.0,30.12,West,270,5.0,5.0,57,0.00,,---,0.00,VWS V14.01,2013-02-12 04:07:00,
2013-02-11 22:08:00,32.5,19.0,30.12,West,281,4.0,5.0,57,0.00,,---,0.00,VWS V14.01,2013-02-12 04:08:00,
2013-02-11 22:10:00,32.4,19.3,30.12,WNW,282,5.0,5.0,58,0.00,,---,0.00,VWS V14.01,2013-02-12 04:10:00,
2013-02-11 22:11:00,32.4,19.3,30.12,WNW,282,4.0,5.0,58,0.00,,---,0.00,VWS V14.01,2013-02-12 04:11:00,
2013-02-11 22:12:00,32.2,19.1,30.12,WNW,282,2.0,5.0,58,0.00,,---,0.00,VWS V14.01,2013-02-12 04:12:00,
2013-02-11 22:13:00,32.2,19.1,30.12,WNW,282,2.0,5.0,58,0.00,,---,0.00,VWS V14.01,2013-02-12 04:13:00,
2013-02-11 22:16:00,31.9,19.2,30.12,WNW,282,2.0,5.0,59,0.00,,---,0.00,VWS V14.01,2013-02-12 04:16:00,
2013-02-11 22:17:00,31.8,19.1,30.12,WNW,282,2.0,2.0,59,0.00,,---,0.00,VWS V14.01,2013-02-12 04:17:00,
2013-02-11 22:18:00,31.8,19.1,30.12,WNW,282,2.0,3.0,59,0.00,,---,0.00,VWS V14.01,2013-02-12 04:18:00,
2013-02-11 22:21:00,31.5,18.8,30.12,WNW,282,0.0,3.0,59,0.00,,---,0.00,VWS V14.01,2013-02-12 04:21:00,
2013-02-11 22:23:00,31.3,19.0,30.12,WNW,282,0.0,3.0,60,0.00,,---,0.00,VWS V14.01,2013-02-12 04:23:00,
2013-02-11 22:26:00,30.9,18.7,30.12,WNW,282,1.0,3.0,60,0.00,,---,0.00,VWS V14.01,2013-02-12 04:26:00,
2013-02-11 22:28:00,30.7,18.9,30.12,WNW,282,2.0,3.0,61,0.00,,---,0.00,VWS V14.01,2013-02-12 04:28:00,
2013-02-11 22:32:00,30.1,18.7,30.12,WNW,282,0.0,3.0,62,0.00,,---,0.00,VWS V14.01,2013-02-12 04:32:00,
2013-02-11 22:33:00,30.0,19.0,30.12,WNW,282,0.0,3.0,63,0.00,,---,0.00,VWS V14.01,2013-02-12 04:33:00,
2013-02-11 22:37:00,29.7,19.0,30.12,WNW,282,2.0,3.0,64,0.00,,---,0.00,VWS V14.01,2013-02-12 04:37:00,
2013-02-11 22:38:00,29.5,18.8,30.12,WNW,282,1.0,3.0,64,0.00,,---,0.00,VWS V14.01,2013-02-12 04:38:00,
2013-02-11 22:43:00,29.3,18.6,30.12,WNW,282,0.0,3.0,64,0.00,,---,0.00,VWS V14.01,2013-02-12 04:43:00,
2013-02-11 22:44:00,29.3,18.6,30.12,WNW,282,0.0,3.0,64,0.00,,---,0.00,VWS V14.01,2013-02-12 04:44:00,
2013-02-11 22:48:00,29.0,18.7,30.13,WNW,282,2.0,3.0,65,0.00,,---,0.00,VWS V14.01,2013-02-12 04:48:00,
2013-02-11 22:49:00,29.0,18.7,30.13,WNW,282,2.0,3.0,65,0.00,,---,0.00,VWS V14.01,2013-02-12 04:49:00,
2013-02-11 22:53:00,29.0,18.7,30.13,WNW,282,2.0,3.0,65,0.00,,---,0.00,VWS V14.01,2013-02-12 04:53:00,
2013-02-11 22:54:00,29.0,18.7,30.13,WNW,282,2.0,3.0,65,0.00,,---,0.00,VWS V14.01,2013-02-12 04:54:00,
2013-02-11 22:58:00,29.0,18.7,30.13,WNW,282,1.0,3.0,65,0.00,,---,0.00,VWS V14.01,2013-02-12 04:58:00,
2013-02-11 22:59:00,29.0,18.7,30.13,WNW,282,1.0,3.0,65,0.00,,---,0.00,VWS V14.01,2013-02-12 04:59:00,
2013-02-11 23:00:00,29.0,18.7,30.13,WNW,282,1.0,3.0,65,0.00,,---,0.00,VWS V14.01,2013-02-12 05:00:00,
2013-02-11 23:05:00,28.8,18.5,30.13,WNW,282,0.0,3.0,65,0.00,,---,0.00,VWS V14.01,2013-02-12 05:05:00,
2013-02-11 23:10:00,28.5,18.6,30.13,WNW,282,0.0,3.0,66,0.00,,---,0.00,VWS V14.01,2013-02-12 05:10:00,
2013-02-11 23:15:00,28.1,18.6,30.13,WNW,282,0.0,3.0,67,0.00,,---,0.00,VWS V14.01,2013-02-12 05:15:00,
2013-02-11 23:16:00,27.9,18.4,30.13,WNW,282,0.0,3.0,67,0.00,,---,0.00,VWS V14.01,2013-02-12 05:16:00,
2013-02-11 23:20:00,27.9,18.7,30.13,WNW,282,1.0,2.0,68,0.00,,---,0.00,VWS V14.01,2013-02-12 05:20:00,
2013-02-11 23:21:00,27.9,18.7,30.13,WNW,282,1.0,2.0,68,0.00,,---,0.00,VWS V14.01,2013-02-12 05:21:00,
2013-02-11 23:26:00,28.1,18.6,30.13,WNW,282,2.0,3.0,67,0.00,,---,0.00,VWS V14.01,2013-02-12 05:26:00,
2013-02-11 23:27:00,27.9,18.4,30.13,WNW,282,2.0,3.0,67,0.00,,---,0.00,VWS V14.01,2013-02-12 05:27:00,
2013-02-11 23:31:00,27.9,18.7,30.13,WNW,282,2.0,3.0,68,0.00,,---,0.00,VWS V14.01,2013-02-12 05:31:00,
2013-02-11 23:32:00,27.8,18.6,30.14,WNW,282,2.0,3.0,68,0.00,,---,0.00,VWS V14.01,2013-02-12 05:32:00,
2013-02-11 23:36:00,27.6,18.4,30.14,WNW,282,2.0,3.0,68,0.00,,---,0.00,VWS V14.01,2013-02-12 05:36:00,
2013-02-11 23:37:00,27.6,18.4,30.14,WNW,282,1.0,3.0,68,0.00,,---,0.00,VWS V14.01,2013-02-12 05:37:00,
2013-02-11 23:38:00,27.6,18.8,30.14,WNW,282,2.0,3.0,69,0.00,,---,0.00,VWS V14.01,2013-02-12 05:38:00,
2013-02-11 23:41:00,27.6,18.8,30.14,WNW,282,2.0,3.0,69,0.00,,---,0.00,VWS V14.01,2013-02-12 05:41:00,
2013-02-11 23:42:00,27.6,18.8,30.14,WNW,282,1.0,3.0,69,0.00,,---,0.00,VWS V14.01,2013-02-12 05:42:00,
2013-02-11 23:43:00,27.5,18.7,30.14,WNW,282,1.0,3.0,69,0.00,,---,0.00,VWS V14.01,2013-02-12 05:43:00,
2013-02-11 23:46:00,27.5,18.7,30.14,WNW,282,0.0,3.0,69,0.00,,---,0.00,VWS V14.01,2013-02-12 05:46:00,
2013-02-11 23:47:00,27.5,18.7,30.14,WNW,282,0.0,3.0,69,0.00,,---,0.00,VWS V14.01,2013-02-12 05:47:00,
2013-02-11 23:48:00,27.3,18.5,30.14,WNW,282,0.0,0.0,69,0.00,,---,0.00,VWS V14.01,2013-02-12 05:48:00,
2013-02-11 23:52:00,27.3,18.8,30.14,WNW,282,2.0,2.0,70,0.00,,---,0.00,VWS V14.01,2013-02-12 05:52:00,
2013-02-11 23:54:00,27.2,18.7,30.14,WNW,282,1.0,2.0,70,0.00,,---,0.00,VWS V14.01,2013-02-12 05:54:00,
2013-02-11 23:57:00,27.2,18.7,30.14,WNW,282,2.0,3.0,70,0.00,,---,0.00,VWS V14.01,2013-02-12 05:57:00,
2013-02-11 23:59:00,27.2,18.7,30.14,WNW,282,2.0,3.0,70,0.00,,---,0.00,VWS V14.01,2013-02-12 05:59:00,